GFSNE_250_rhum_000.txt.gz
RH
16 16 19 22 25 28 31 34 33 28 33 42 37 38 36 32 31 26 22 20 19 18 15 13 13 11 9 9 9 8 8 7 6 8 10 10 11 15
20 25 26 28 35 39 42 34 29 27 26 40 37 33 29 22 20 18 15 11 9 8 7 5 4 4 4 4 4 4 4 4 4 4 4 4 4 5
27 28 32 36 40 36 32 33 34 32 25 27 22 20 18 15 14 12 9 6 4 4 3 2 3 3 3 3 3 3 3 3 3 3 3 3 3 3
34 34 37 37 32 32 33 33 30 24 18 16 17 13 10 8 7 5 5 4 3 2 2 2 2 2 2 2 2 2 2 2 2 2 2 2 2 2
35 38 32 34 35 34 31 28 22 18 14 11 10 7 5 5 4 4 3 3 2 2 2 2 2 2 2 2 2 2 2 2 2 2 2 2 2 2
37 36 33 31 30 30 25 18 14 12 11 7 5 4 4 3 3 3 3 2 2 2 2 2 2 2 2 2 2 2 2 2 2 2 2 2 2 2
35 32 31 31 27 20 15 13 10 6 5 4 3 3 3 4 3 3 3 3 2 2 3 2 2 2 2 2 2 1 1 1 1 1 1 1 2 2
30 31 29 23 20 16 12 6 5 4 3 2 3 3 4 3 3 3 3 3 2 2 2 1 2 1 2 2 2 2 2 1 1 1 1 1 1 2
31 27 24 20 13 7 5 5 4 3 2 2 3 3 3 3 3 3 2 2 2 2 2 2 2 2 2 2 2 2 2 2 1 1 1 2 2 2
27 23 17 9 6 5 4 4 4 3 3 3 3 3 3 3 3 2 2 2 2 2 3 3 3 3 3 3 2 3 3 2 2 2 2 1 1 1
25 15 6 6 5 5 4 4 4 3 3 3 3 3 3 2 2 2 2 2 3 3 4 4 4 4 4 3 3 3 3 3 3 2 2 1 1 1
14 8 6 5 6 4 4 4 3 3 3 3 3 2 2 2 3 3 3 4 4 5 5 5 5 4 4 4 4 4 3 3 3 2 2 1 1 1
8 7 6 6 5 4 4 3 3 3 3 2 2 2 2 3 3 4 5 5 6 6 5 5 5 5 4 4 4 4 3 3 3 3 3 2 2 1
7 6 6 5 5 4 4 4 3 2 2 3 3 3 3 4 5 6 6 7 6 5 5 6 6 6 5 4 4 4 4 3 3 3 2 3 2 2
8 5 5 5 4 4 4 3 3 3 4 4 4 4 5 7 7 7 7 7 6 6 5 6 7 6 6 5 5 5 4 4 3 3 3 3 3 3
6 5 5 5 4 4 3 3 4 4 4 4 5 7 8 9 9 9 8 9 8 6 7 7 8 8 7 6 6 6 5 5 5 4 4 3 3 4
6 6 5 5 4 3 4 4 4 4 5 6 8 9 11 12 12 11 9 9 8 8 8 9 10 10 10 8 8 7 6 6 6 5 5 4 4 4
6 5 5 4 4 4 5 5 5 6 9 10 11 12 14 15 14 13 13 12 14 10 9 10 10 11 11 10 8 8 7 6 6 6 6 5 5 5
5 5 4 4 5 5 6 7 8 10 12 13 14 15 14 15 14 13 17 18 17 17 14 11 10 13 13 11 12 10 9 8 7 6 6 6 5 5
6 4 4 5 6 6 8 9 12 13 16 17 16 16 14 14 16 16 17 22 21 19 18 14 11 15 17 14 15 15 12 11 9 8 8 7 7 7
5 4 5 6 6 8 10 14 16 19 20 22 23 24 22 19 18 18 17 18 21 22 22 21 23 16 17 18 20 17 17 16 13 11 10 9 8 8
5 6 6 6 8 13 16 17 19 20 20 21 21 23 27 30 28 26 28 20 16 17 20 22 23 25 18 18 21 19 19 18 17 14 10 8 10 14
6 6 7 9 14 18 19 18 18 18 18 20 23 23 23 22 22 24 26 30 24 18 17 19 20 21 22 18 20 22 19 20 18 18 17 16 17 17

GFSNE_250_rhum_003.txt.gz
RH
17 18 16 16 17 20 22 24 23 25 34 36 29 30 30 29 28 26 22 19 18 17 15 13 12 11 10 10 9 8 8 8 8 9 10 11 14 16
20 16 17 22 28 32 32 32 32 26 22 30 29 24 21 19 20 16 14 12 10 10 9 7 6 6 6 6 6 6 5 5 6 5 5 6 7 9
17 22 28 30 32 34 39 34 29 26 23 24 23 23 19 15 14 14 12 9 6 5 4 3 3 3 3 3 3 3 3 3 3 3 3 3 3 3
26 29 32 33 38 38 32 27 25 24 20 16 18 16 13 9 6 5 4 4 4 3 3 2 2 2 2 2 2 2 2 2 2 2 2 2 2 3
26 30 33 38 33 28 26 27 26 21 19 15 7 6 5 4 4 4 3 3 2 2 2 2 2 2 2 2 2 2 2 2 2 2 2 2 2 2
29 36 36 30 26 27 29 24 19 16 10 5 4 4 4 4 3 2 3 2 2 2 2 2 2 2 2 2 2 2 2 2 2 2 2 2 2 2
41 35 31 28 32 28 22 16 10 5 4 4 4 4 3 3 3 3 3 3 2 2 3 2 2 2 2 2 2 2 2 2 2 2 2 2 2 2
34 34 37 35 29 24 14 7 6 4 3 3 3 3 3 3 2 2 2 3 3 2 3 2 2 2 2 2 1 1 2 2 1 1 1 1 1 1
38 39 37 31 21 9 6 7 6 5 4 3 3 3 2 2 2 2 2 2 2 2 2 2 2 2 2 2 2 2 2 2 2 2 2 2 2 2
42 39 29 18 7 6 7 7 6 4 4 4 3 2 2 2 2 2 2 2 2 2 2 2 2 2 2 2 3 3 2 2 2 2 2 2 2 2
45 33 16 7 7 8 7 5 5 4 4 3 3 2 2 2 2 2 2 2 2 2 3 4 3 4 3 3 4 3 3 3 3 3 3 3 3 2
43 16 8 9 9 7 5 5 5 4 3 3 2 2 3 3 3 2 3 4 4 4 4 5 4 4 4 4 4 4 4 4 4 4 4 3 3 2
15 10 10 10 7 5 5 5 4 4 3 2 3 3 3 3 4 5 5 6 6 6 6 5 5 5 5 5 4 5 4 4 4 4 4 3 3 2
11 9 10 7 5 6 5 4 4 3 3 4 4 4 4 4 5 7 8 8 7 7 6 6 6 5 4 5 5 5 5 5 4 4 4 3 3 2
10 10 6 6 6 5 5 4 4 4 4 4 4 5 6 7 8 10 10 10 9 7 6 6 6 6 7 6 6 6 6 6 5 4 4 3 3 2
10 6 6 6 6 5 4 4 4 5 5 5 6 8 11 11 12 14 14 11 10 8 6 6 6 7 9 8 6 6 6 7 6 5 4 3 3 3
5 6 6 6 5 4 4 5 6 6 6 8 10 13 14 14 14 15 14 12 12 12 10 7 7 8 8 8 8 7 7 6 6 5 5 4 3 3
6 6 6 5 4 4 5 6 6 7 9 12 13 15 16 15 14 14 13 11 13 14 14 10 7 8 8 8 9 7 8 7 6 6 6 5 4 4
6 6 5 5 4 6 6 6 8 11 14 15 17 18 18 16 15 14 15 14 13 14 17 14 9 8 10 11 10 9 9 8 6 6 6 5 5 4
6 5 5 5 6 6 6 9 13 16 17 18 19 19 21 22 21 19 18 16 14 15 18 19 17 12 12 15 12 11 9 11 8 6 6 6 6 6
5 5 5 6 6 7 10 13 14 15 17 18 18 17 16 16 19 24 24 25 17 14 14 22 23 19 16 17 16 15 13 12 10 7 7 7 6 6
5 5 6 7 8 12 12 12 12 13 14 15 14 14 17 18 15 14 20 24 25 18 14 15 22 22 19 18 19 20 17 16 12 10 8 8 8 7
5 5 7 9 14 14 14 14 14 12 11 11 11 12 15 16 17 17 16 17 23 25 18 16 17 20 20 19 20 22 20 18 18 12 9 12 11 10

GFSNE_250_rhum_006.txt.gz
RH
28 27 25 24 22 24 21 18 19 20 29 36 36 34 29 24 23 22 20 19 18 18 18 15 13 12 10 10 10 9 8 8 9 9 11 12 13 14
27 26 26 25 26 21 21 23 25 30 27 29 22 17 16 14 14 14 14 13 11 9 7 6 6 5 4 4 4 4 4 5 6 6 7 8 8 8
26 27 28 26 20 23 24 31 35 28 20 23 19 19 16 16 13 7 4 3 3 3 2 2 2 2 3 3 3 3 3 3 3 3 3 3 3 3
29 31 26 20 26 26 36 36 27 25 20 14 16 16 13 7 5 4 4 3 2 2 2 2 2 2 2 2 2 3 2 2 2 2 2 2 2 2
31 23 22 26 28 37 32 29 28 24 16 14 11 8 6 5 5 5 3 3 2 2 2 2 2 2 2 2 2 2 2 2 2 2 2 2 2 2
22 26 26 32 36 30 32 30 21 16 13 8 7 5 5 5 4 3 3 3 2 2 2 2 2 2 2 2 2 2 2 2 2 2 2 2 2 2
30 27 36 33 35 36 28 21 18 12 8 7 6 5 4 4 3 3 3 3 2 2 2 2 2 2 2 2 2 2 2 2 2 2 2 2 2 2
28 39 34 42 38 30 23 18 12 8 5 6 5 4 4 4 3 3 3 2 2 2 2 2 1 1 2 2 2 2 2 2 2 2 2 2 2 1
37 40 45 39 30 24 18 12 9 6 6 5 5 5 4 4 3 3 2 2 2 2 2 2 2 2 2 2 2 2 2 2 2 2 2 2 2 2
51 44 42 34 26 13 9 11 8 7 6 5 5 4 4 3 2 3 3 2 3 3 2 3 3 2 3 3 3 4 3 3 3 3 3 3 3 2
47 49 39 26 14 9 10 8 7 5 5 5 5 4 3 3 3 3 3 3 3 4 4 5 5 4 4 4 4 4 4 4 4 4 4 3 3 2
54 42 22 13 9 10 8 7 5 6 6 4 4 3 4 4 4 4 5 4 5 6 7 6 6 6 4 5 4 5 5 5 5 4 4 3 3 2
39 22 12 10 10 8 6 5 6 6 5 4 3 4 4 5 5 7 8 8 7 9 10 7 6 6 5 6 4 5 6 5 5 4 4 4 3 3
20 12 11 10 8 5 5 6 6 5 4 4 5 5 5 7 8 11 11 11 12 12 9 8 6 6 6 5 6 6 6 6 6 5 5 4 3 3
14 12 8 7 5 5 6 5 5 4 4 5 5 5 7 9 12 14 14 13 14 12 11 10 8 6 6 7 8 9 7 7 6 6 5 4 3 3
13 8 5 4 6 6 5 5 4 4 5 5 5 8 10 12 13 14 14 14 14 12 12 13 9 7 8 9 10 10 8 8 7 6 5 4 3 3
7 4 5 6 5 5 5 4 5 6 6 8 10 12 14 17 17 17 14 13 12 12 13 12 9 8 9 11 11 11 10 8 7 6 5 4 3 3
4 5 6 5 4 4 4 5 6 7 10 12 14 16 17 18 21 22 18 14 14 14 15 15 12 9 11 13 12 11 10 10 8 7 5 5 4 3
5 6 5 4 4 4 5 6 8 12 12 12 13 14 16 18 16 19 23 20 15 14 15 19 16 12 12 17 14 12 11 10 9 7 6 5 4 4
6 5 4 4 5 5 6 8 11 12 12 12 12 13 14 14 17 19 22 25 21 18 14 19 20 16 15 20 16 13 12 10 8 8 6 6 5 4
5 4 4 5 6 7 10 11 11 10 10 11 12 11 11 13 13 19 20 21 24 20 15 14 21 19 18 20 18 17 14 11 9 8 7 6 6 5
4 4 6 6 8 11 11 11 9 9 9 9 10 10 10 12 13 15 19 20 19 20 17 14 18 22 22 22 21 20 16 12 10 9 8 6 6 6
5 6 7 10 13 15 12 9 8 7 7 7 7 8 8 8 12 16 16 18 21 18 20 14 15 20 21 22 22 21 18 15 10 11 10 7 7 6

GFSNE_250_rhum_009.txt.gz
RH
35 32 30 30 33 30 25 22 22 24 30 21 19 21 30 34 32 24 20 19 19 21 20 18 15 11 9 9 8 8 9 9 8 9 9 9 9 10
35 36 37 35 32 28 26 26 29 27 18 20 24 29 26 20 16 14 18 19 16 10 6 5 4 4 4 3 3 3 2 2 3 3 3 4 6 7
42 42 36 33 32 30 30 32 22 18 20 36 35 33 23 17 18 17 10 5 4 4 4 4 3 3 3 3 3 3 2 2 2 2 2 2 3 3
42 37 37 35 35 33 31 20 23 23 30 28 32 22 19 22 15 6 5 4 4 4 3 3 3 3 2 2 2 2 2 2 2 2 2 2 2 2
40 42 40 37 36 27 24 25 29 37 32 21 19 22 20 11 6 5 5 4 3 3 3 3 3 2 2 2 2 2 2 2 2 2 2 2 2 2
44 41 36 35 23 27 29 38 42 36 23 18 18 14 8 6 6 5 4 3 3 3 2 2 2 2 2 2 2 2 2 2 2 2 2 2 2 2
42 38 30 26 29 35 41 41 32 22 16 17 11 7 6 5 4 4 4 4 3 3 2 2 2 2 2 2 2 2 2 2 2 2 2 2 2 2
38 26 30 32 41 43 39 36 27 17 16 8 6 6 5 4 4 4 4 4 3 2 2 2 3 2 2 2 2 2 2 2 2 2 2 2 2 2
31 34 42 43 42 41 38 27 19 12 6 5 6 5 4 5 5 4 4 3 3 4 3 2 3 3 4 4 3 3 2 2 2 2 2 2 2 2
41 47 44 41 45 35 25 17 13 8 7 6 4 4 5 5 4 4 3 3 3 5 5 3 4 4 4 4 4 5 4 3 3 3 3 3 3 2
50 42 42 44 34 26 18 12 9 7 5 4 5 5 5 4 4 4 4 4 3 5 7 8 9 7 8 6 5 5 5 4 4 4 4 3 3 3
43 42 40 31 24 16 11 9 8 5 4 5 5 4 4 4 5 6 5 5 5 7 8 8 11 10 7 7 6 5 6 5 5 4 4 4 4 4
39 38 31 24 13 11 8 6 4 5 5 4 4 4 4 5 5 6 7 9 8 10 12 11 10 9 10 7 6 6 6 6 6 5 5 5 4 4
38 30 21 12 11 8 6 4 5 5 4 4 4 5 5 5 6 10 11 12 13 12 12 12 10 10 10 7 6 7 7 7 6 5 5 5 4 4
31 19 13 12 9 5 4 6 4 4 4 4 5 5 7 9 11 14 18 17 17 13 14 13 12 13 11 7 9 9 8 7 6 6 5 5 4 3
18 15 12 8 4 5 6 4 4 4 4 4 4 8 10 12 15 16 18 20 19 17 15 14 14 16 10 9 10 9 9 8 7 5 5 4 4 3
15 10 5 4 5 5 4 4 4 5 5 7 10 10 11 11 14 16 17 18 17 19 17 15 14 18 12 11 11 10 9 9 6 5 5 5 4 3
8 4 5 6 4 3 4 4 5 6 9 10 11 11 11 12 14 16 16 18 19 20 20 16 14 21 14 12 12 11 11 9 6 5 6 5 4 3
4 5 6 4 4 4 4 4 6 8 9 8 7 8 9 10 11 15 17 20 18 19 26 16 14 23 17 15 15 13 12 9 6 6 6 5 3 3
6 6 4 4 4 5 5 7 8 8 7 6 7 7 7 7 9 11 16 18 18 17 26 17 13 26 16 17 17 14 12 9 7 6 6 4 4 3
6 5 5 5 5 6 8 9 8 7 6 5 6 6 6 7 8 10 12 16 15 16 25 17 13 25 18 18 19 16 13 10 8 6 6 5 4 3
5 5 6 6 7 10 10 9 8 7 7 6 6 6 6 6 8 8 12 14 14 15 22 16 16 24 19 20 20 18 13 11 8 6 6 6 5 4
6 6 7 8 12 11 9 7 7 7 7 6 5 5 6 6 6 7 10 13 14 15 22 15 17 21 19 21 20 19 12 12 8 7 7 6 5 4

GFSNE_250_rhum_015.txt.gz
RH
40 52 55 55 55 53 58 61 58 55 55 57 57 54 50 51 48 41 38 31 25 25 24 30 27 30 31 33 31 25 17 12 8 7 6 4 4 3
41 44 46 50 43 43 50 52 51 45 46 55 54 51 49 39 32 27 21 20 27 25 22 26 28 30 27 20 12 8 7 6 4 4 4 4 4 4
37 34 36 38 36 41 49 49 49 51 49 62 58 47 35 28 23 24 28 24 21 23 25 26 20 13 7 5 6 5 4 4 3 3 3 3 3 3
33 31 34 34 38 44 48 48 53 58 59 53 55 42 30 25 31 26 21 20 23 24 18 11 7 6 5 4 4 3 3 3 3 3 3 4 3 3
38 38 34 37 41 47 48 53 61 63 57 52 42 29 30 35 26 23 22 26 22 12 7 6 5 3 3 4 4 4 4 3 3 3 3 3 3 2
47 41 43 44 49 49 55 64 66 64 60 46 28 32 33 26 22 24 28 21 8 6 4 3 3 4 4 4 3 3 3 3 3 2 2 2 2 2
54 48 48 52 54 59 64 66 67 66 44 29 37 31 25 22 26 25 14 6 4 3 4 4 4 4 3 3 3 3 3 3 3 2 2 2 2 2
56 54 52 55 62 66 70 70 64 34 33 36 28 21 24 26 22 8 5 4 4 3 5 3 3 3 4 4 4 4 4 4 4 3 2 2 2 2
56 56 58 64 68 69 70 62 34 43 37 25 22 27 26 15 7 4 4 4 4 3 3 3 4 4 4 4 4 4 4 5 5 6 5 5 4 3
65 65 69 67 70 72 40 37 49 38 31 26 29 21 11 6 4 5 4 3 3 3 5 5 4 4 5 6 5 6 7 7 7 7 7 7 6 5
67 71 65 74 54 38 47 51 40 30 28 27 18 9 6 4 5 5 3 4 4 3 5 5 7 8 8 9 8 9 10 10 10 8 7 7 6 5
70 73 64 39 42 58 45 38 29 31 24 16 8 5 4 5 4 4 5 5 5 5 7 8 9 12 8 15 12 12 10 10 9 9 8 7 5 5
70 46 44 62 55 41 33 30 30 22 12 8 4 5 5 4 4 5 6 9 10 9 9 9 8 10 14 10 14 12 11 11 9 8 6 5 5 6
46 67 66 47 41 34 32 28 19 10 7 4 5 5 4 4 5 7 9 10 10 12 8 9 8 12 12 13 12 12 12 14 10 6 7 8 7 6
77 54 49 44 36 32 24 14 10 6 5 5 4 4 4 5 7 8 8 8 8 9 10 8 7 12 13 14 14 13 13 8 12 12 10 9 8 7
61 54 42 35 31 20 12 9 5 5 5 4 4 5 6 7 7 6 6 6 6 6 10 8 7 12 12 16 13 11 12 11 8 11 11 10 9 8
53 40 34 27 16 11 8 5 6 5 4 5 6 8 7 6 5 5 4 5 5 5 7 10 8 11 14 16 12 18 15 11 14 13 10 8 7 6
38 31 23 13 10 7 6 6 5 5 5 8 8 7 6 5 5 5 5 5 5 6 7 9 9 11 14 14 11 14 17 16 14 11 9 7 7 6
26 16 11 10 6 6 6 6 6 7 9 8 7 6 6 5 5 5 5 5 5 6 7 9 10 11 15 12 16 13 15 14 12 10 8 7 6 5
11 10 8 6 6 6 6 7 9 10 8 6 6 6 5 5 5 5 5 5 6 7 8 10 11 13 11 12 17 17 15 14 11 9 7 6 6 4
10 8 6 7 6 7 7 11 10 8 7 7 6 6 5 4 5 5 5 6 7 8 11 11 11 12 13 17 16 17 14 10 9 7 6 6 4 4
6 6 7 6 7 8 13 11 9 8 7 8 6 6 6 5 5 5 6 6 7 11 13 11 13 12 15 16 17 16 12 11 8 7 6 5 4 4
7 7 7 7 9 14 12 10 11 9 8 8 7 6 6 5 5 6 6 7 12 14 12 13 12 15 16 18 18 15 12 9 8 7 6 5 4 4

GFSNE_250_rhum_018.txt.gz
RH
88 94 99 70 51 43 39 36 34 33 41 45 34 32 32 35 43 44 45 42 36 32 28 19 18 22 22 24 26 27 30 30 29 24 20 15 11 7
83 79 76 66 58 44 41 38 36 33 32 32 28 28 32 38 42 39 36 32 29 24 19 20 21 22 26 28 30 32 28 20 13 7 5 4 4 4
66 67 67 68 60 51 48 43 38 34 29 31 24 21 30 35 34 32 29 23 20 20 19 20 24 26 26 24 21 14 8 5 5 4 4 3 3 3
52 55 58 54 51 48 47 46 39 36 28 22 21 32 35 34 32 26 23 19 19 20 24 25 24 22 14 8 6 4 3 3 3 3 3 2 3 3
49 44 44 46 46 46 45 43 40 37 28 18 28 35 34 32 26 19 20 20 24 25 26 23 16 9 5 3 3 3 3 3 4 4 3 3 3 3
47 38 35 36 38 41 42 39 35 27 26 30 32 32 30 21 19 20 22 26 30 25 17 9 6 4 3 4 4 3 3 3 3 2 2 2 2 2
42 36 37 37 38 36 37 34 34 37 38 35 38 30 21 22 20 22 28 32 24 12 8 5 4 4 4 3 2 2 2 3 3 3 3 3 3 3
39 35 39 37 34 34 32 41 40 36 40 32 23 21 27 19 23 29 31 22 13 4 4 5 4 3 3 3 3 3 3 3 3 3 3 3 3 3
38 36 38 35 34 39 41 45 46 39 29 19 26 21 20 26 30 29 19 10 6 4 4 4 3 3 4 4 5 4 4 4 4 5 5 5 5 4
39 38 36 39 41 43 50 52 40 27 29 28 22 22 28 28 20 15 8 6 5 4 3 5 4 3 6 6 10 8 9 8 8 9 9 7 7 6
35 36 45 46 47 39 40 43 35 32 31 24 26 29 26 17 9 6 5 5 4 3 2 5 6 7 8 6 10 10 10 11 12 12 12 10 9 8
52 47 43 39 36 35 30 32 40 35 27 32 31 21 13 6 5 4 4 4 4 4 3 6 6 8 8 6 10 10 10 12 14 14 12 10 10 10
42 39 38 35 31 36 47 40 31 31 35 27 19 9 6 4 4 4 3 4 6 7 6 6 5 6 8 6 7 13 12 10 15 14 12 11 13 12
45 41 37 44 59 53 40 34 36 32 22 13 8 5 5 4 4 5 5 5 5 6 6 6 6 5 5 7 6 10 14 12 15 12 11 11 10 8
54 58 59 59 55 42 35 34 24 16 10 7 5 5 5 5 5 6 5 4 4 4 6 5 4 4 5 8 5 9 10 15 15 13 13 10 8 8
67 66 61 52 39 33 26 20 11 8 6 6 6 5 6 6 5 5 5 4 4 4 6 5 4 5 7 8 7 8 14 12 12 19 16 11 13 9
67 58 46 33 27 22 14 9 7 6 6 6 5 7 6 7 5 5 5 5 5 5 5 5 5 7 8 8 10 10 15 13 14 11 10 9 9 7
42 32 25 23 16 11 8 6 7 7 6 7 8 7 7 6 6 5 5 5 5 5 5 6 6 8 9 10 11 14 17 14 14 14 12 9 7 6
24 22 17 13 10 6 7 8 7 7 9 9 7 7 6 6 5 5 5 5 5 5 6 7 9 10 10 12 11 11 14 17 16 12 7 6 5 6
18 13 12 8 6 7 8 8 8 11 10 8 7 7 6 5 5 4 4 5 6 6 8 9 10 10 13 13 13 14 14 12 9 8 7 7 6 5
12 10 7 6 8 9 8 11 14 11 9 8 8 7 6 5 5 5 6 6 7 9 10 10 11 13 14 17 18 19 15 11 9 8 7 6 5 4
7 6 7 8 9 9 14 15 12 10 9 8 8 7 7 7 7 7 7 7 11 12 11 11 13 16 17 18 19 15 10 9 7 7 6 5 4 4
6 8 8 9 10 16 16 13 11 10 9 10 8 8 9 8 8 8 10 14 16 14 13 14 19 19 19 18 15 11 9 8 7 6 6 5 5 5

GFSNE_250_rhum_021.txt.gz
RH
70 73 69 68 79 85 85 82 76 85 98 98 87 81 60 49 38 32 31 31 29 27 21 18 17 17 26 27 25 22 20 24 23 22 19 18 18 18
67 73 83 86 85 94 93 89 86 76 67 70 68 64 61 56 44 41 37 32 28 23 19 17 17 24 25 22 18 23 22 22 21 20 17 14 12 10
67 75 73 69 70 71 78 75 56 42 37 38 36 41 43 41 41 39 34 29 26 21 15 20 24 24 21 20 23 22 22 21 16 11 8 6 5 4
82 83 79 78 65 55 60 58 52 43 33 30 32 31 31 32 28 27 26 24 20 18 24 26 22 17 26 21 20 19 14 9 6 5 4 3 3 2
87 84 80 75 68 56 51 44 43 42 37 32 31 28 27 27 27 25 22 20 26 22 19 17 22 22 20 17 13 8 6 4 3 2 3 3 3 3
71 71 70 71 73 70 64 47 35 32 32 30 28 26 24 22 20 24 30 25 24 16 22 25 20 18 13 8 6 5 3 3 3 3 3 2 2 2
66 70 70 72 61 52 46 43 38 32 29 28 27 25 26 30 29 27 20 20 28 23 23 21 14 9 6 4 4 4 4 4 3 3 3 3 3 3
79 69 58 56 56 54 49 41 36 29 24 24 29 30 27 19 17 18 26 24 29 21 15 10 6 4 3 3 4 4 3 3 3 3 4 4 4 3
69 69 78 72 69 63 56 47 40 32 26 23 20 18 16 19 26 27 25 22 17 9 7 6 4 4 3 3 3 4 4 4 5 6 6 6 7 6
80 83 81 80 68 55 44 38 31 25 22 20 19 22 26 25 21 19 16 13 8 5 3 5 4 3 3 3 3 5 7 7 7 6 7 7 8 8
86 68 58 53 46 35 29 30 29 28 32 29 26 26 24 19 15 13 8 6 4 4 3 4 4 5 5 4 5 7 10 8 7 7 8 8 8 9
67 54 44 39 36 34 30 36 44 40 36 34 27 23 18 12 8 5 4 4 4 4 3 5 5 5 7 5 4 6 8 7 7 7 9 11 11 11
48 44 39 36 38 46 50 46 42 38 33 27 23 16 9 6 4 4 4 4 4 5 5 5 5 4 4 4 3 5 7 7 7 7 11 10 10 13
48 50 62 66 66 59 48 41 34 30 24 17 11 8 5 4 4 4 4 5 4 4 5 4 4 3 4 4 4 5 7 6 6 8 11 10 12 13
79 76 71 66 54 42 33 31 25 16 12 9 6 5 5 4 5 6 5 4 4 4 5 4 4 4 4 4 4 5 5 7 10 8 8 11 12 12
73 66 52 42 34 31 26 16 12 10 7 5 5 5 5 7 6 5 6 5 4 4 5 4 4 4 4 4 5 6 6 8 9 9 12 10 12 17
57 48 40 33 29 18 13 11 7 6 6 6 5 7 8 6 5 6 6 5 5 4 5 5 5 4 5 5 5 6 7 9 11 12 16 11 14 14
42 37 31 23 15 13 8 6 6 6 7 6 8 8 7 6 6 6 5 4 4 5 5 5 6 6 6 7 7 8 10 10 12 14 13 12 12 11
35 25 18 15 12 7 6 7 7 7 7 10 9 8 8 7 6 6 6 6 6 6 6 8 8 9 8 9 10 12 16 13 13 13 10 9 8 7
20 16 14 10 7 6 8 8 7 9 10 10 9 9 8 7 7 7 7 7 7 9 11 11 10 11 11 11 13 14 14 14 12 9 8 7 6 6
14 12 8 6 7 9 8 8 11 11 11 10 10 10 8 9 10 9 9 8 13 13 11 12 14 16 18 17 17 16 12 10 8 8 7 6 5 5
9 7 6 8 9 9 9 13 11 12 11 11 11 10 10 11 10 10 12 15 16 15 14 17 19 20 19 19 16 13 9 8 7 7 6 5 5 4
6 6 8 9 10 11 12 12 11 10 13 12 11 10 12 12 11 12 15 15 17 19 21 21 20 18 18 16 11 9 8 7 6 6 6 5 6 5

GFSNE_250_rhum_027.txt.gz
RH
100 93 93 96 87 75 73 73 74 79 79 83 80 80 78 74 61 54 51 49 48 46 44 40 36 34 34 37 39 42 46 44 44 40 30 26 25 24
100 84 92 88 89 73 66 81 80 82 83 97 99 96 91 80 67 63 63 62 62 60 54 49 46 43 38 35 32 30 30 33 34 29 27 25 24 22
100 99 94 88 61 75 92 82 86 73 84 93 85 74 74 72 69 65 61 57 56 53 53 53 55 53 50 47 38 30 26 25 26 26 24 23 22 20
100 100 99 99 100 93 84 78 72 70 72 88 73 74 79 74 67 69 63 57 50 49 42 37 38 35 39 40 38 34 30 25 21 20 20 18 16 14
100 95 88 100 91 89 69 73 83 69 75 72 71 74 70 63 57 50 45 38 32 28 26 25 25 24 24 23 21 20 19 17 16 16 16 14 12 12
100 94 90 77 83 80 65 74 74 73 64 60 62 58 53 41 34 31 32 30 33 33 30 30 28 22 19 17 16 15 13 13 13 13 13 14 14 14
100 100 87 85 63 66 71 78 62 62 61 54 64 48 37 37 33 38 42 43 40 34 28 25 20 16 15 13 12 12 11 11 11 12 12 11 11 11
100 77 60 56 60 76 66 59 56 65 65 61 52 45 48 48 48 40 34 29 28 24 19 16 10 9 6 5 5 4 4 5 5 6 6 5 5 4
61 46 53 70 66 74 75 68 72 75 64 57 54 56 49 40 34 30 27 24 20 12 8 9 7 6 4 4 3 2 2 3 3 4 4 4 4 3
54 65 74 70 74 80 87 82 88 69 66 66 61 49 39 32 26 24 21 17 12 8 5 5 4 3 3 3 3 2 2 3 4 5 5 4 3 2
65 72 77 84 98 96 96 86 82 76 74 60 48 39 32 26 22 20 14 12 9 6 3 4 4 4 5 5 4 3 3 4 4 4 3 3 3 3
62 80 89 82 98 100 90 83 83 76 59 47 36 31 28 23 18 14 11 7 5 6 5 5 5 5 6 4 4 3 4 3 3 3 3 4 4 4
92 90 90 100 99 93 84 86 71 59 48 38 36 32 22 16 12 8 5 6 6 6 6 7 6 5 5 5 4 4 4 3 3 4 4 4 4 4
95 99 100 96 92 92 80 63 51 42 39 37 31 20 16 11 7 6 6 6 7 8 6 6 6 6 5 5 4 4 4 4 4 4 4 4 4 5
100 95 100 98 85 71 57 47 40 36 34 25 17 14 8 7 8 7 7 8 7 8 8 7 7 6 6 5 5 5 5 5 5 4 4 4 5 5
100 97 79 73 60 49 40 36 33 27 20 16 11 7 7 8 7 9 9 8 8 7 8 8 7 9 8 10 8 8 7 6 7 6 6 6 6 6
79 64 55 48 40 35 30 24 17 16 12 8 8 9 8 8 9 11 9 10 9 8 7 8 11 12 12 10 9 10 10 9 8 8 8 8 9 9
50 46 42 34 26 20 16 15 11 8 8 8 9 9 9 12 10 9 10 10 9 10 9 9 11 9 10 15 15 15 13 12 12 12 12 14 13 10
44 38 25 18 14 12 10 7 7 8 8 9 10 12 11 11 9 10 10 9 10 11 13 13 14 15 13 13 16 16 19 16 14 12 12 13 14 14
33 19 16 12 10 7 7 8 8 9 10 12 14 12 10 8 9 10 9 10 10 11 12 16 17 17 16 16 15 15 14 14 13 12 11 10 9 9
17 13 11 8 8 8 8 8 9 12 12 14 11 9 9 8 10 10 10 13 13 13 18 18 17 20 18 17 14 11 9 9 8 8 8 7 7 8
12 10 8 9 9 8 8 12 14 14 13 12 9 9 9 10 10 9 12 13 12 18 18 23 21 18 15 12 10 8 8 8 7 7 8 8 8 8
9 7 8 9 9 10 14 16 14 13 12 11 10 9 9 11 11 12 14 12 18 24 21 22 21 14 12 10 10 11 12 12 10 10 12 10 10 9

GFSNE_250_rhum_030.txt.gz
RH
100 100 100 100 97 91 98 100 97 92 92 99 75 66 72 80 77 77 73 64 71 88 85 85 84 79 75 73 71 71 67 56 49 45 45 44 43 35
100 100 100 100 100 100 100 100 99 93 82 71 65 78 88 80 75 76 71 70 77 70 67 69 65 60 55 51 49 48 49 53 58 60 62 59 53 43
100 100 100 100 100 100 100 100 97 83 85 85 73 71 84 78 75 75 75 66 62 54 46 41 35 33 34 37 40 43 45 42 36 31 29 31 33 36
100 100 100 100 100 100 100 100 100 70 65 60 59 66 74 75 90 69 62 50 39 33 27 29 36 41 45 44 44 44 43 39 32 26 22 18 17 16
100 100 100 100 100 100 100 90 82 71 48 61 72 66 76 81 59 50 49 40 36 32 37 41 39 34 31 30 30 30 29 27 25 24 23 20 17 14
100 100 100 100 99 100 97 63 68 53 61 60 69 66 66 51 45 44 43 45 49 45 40 36 31 27 22 20 16 13 13 13 12 12 13 14 15 16
100 100 100 100 100 97 85 76 59 62 67 72 71 65 47 38 43 43 48 51 56 46 40 36 27 24 15 10 7 6 6 5 5 5 5 6 6 6
100 100 100 100 90 83 74 54 52 54 58 69 74 60 54 58 54 57 53 48 48 45 39 36 25 18 9 7 5 4 3 3 3 3 4 3 3 3
100 100 100 91 72 53 42 44 48 55 66 69 74 66 61 61 60 56 57 51 48 40 34 31 14 9 6 4 3 3 3 3 3 3 3 3 3 3
92 63 75 71 66 53 53 59 70 72 72 83 78 63 63 60 53 58 54 53 41 33 15 17 8 5 6 4 4 4 4 4 4 4 3 3 4 4
93 97 95 67 59 58 54 65 74 81 84 78 63 66 66 61 57 54 49 39 35 22 9 8 4 7 6 5 6 5 4 4 4 4 3 3 4 4
82 83 68 70 76 87 82 90 91 88 77 68 63 62 60 56 52 42 37 32 19 12 8 8 6 7 11 5 5 5 5 4 4 4 3 3 3 3
89 87 88 98 100 98 98 90 76 68 65 62 63 57 52 45 39 32 22 14 9 8 8 9 9 8 8 8 6 5 5 5 5 6 5 4 4 4
100 100 96 96 94 74 65 64 63 66 68 61 52 46 38 35 22 15 10 8 7 9 9 10 9 8 8 8 6 6 7 9 6 6 6 6 5 4
100 99 80 77 71 64 63 73 68 57 51 43 37 35 25 14 10 8 8 8 7 10 10 9 9 8 9 10 10 10 8 7 7 7 7 7 6 5
88 77 80 83 78 71 62 56 46 38 35 31 18 14 11 8 8 9 8 8 10 7 8 9 8 9 11 12 8 11 14 12 11 11 10 9 8 6
92 88 76 65 57 54 46 39 34 28 16 12 9 8 8 9 8 9 11 10 9 8 8 7 8 9 10 20 19 14 18 13 13 12 13 15 11 11
69 63 58 53 47 42 36 24 16 11 9 8 9 9 9 10 11 11 9 8 8 9 9 10 9 8 10 16 27 17 18 17 15 13 13 14 13 12
63 57 49 44 36 25 15 12 10 8 9 9 10 12 13 11 10 10 9 9 9 9 11 12 13 17 17 13 16 17 15 12 11 11 10 9 9 9
56 47 37 28 17 12 9 8 8 10 12 14 15 13 11 10 9 9 9 10 9 9 10 13 20 18 18 17 14 12 11 10 9 8 8 8 7 7
39 30 20 12 10 9 7 8 11 14 16 16 13 11 10 10 8 9 10 11 10 13 13 18 18 19 16 14 12 11 10 10 10 9 10 10 8 9
23 15 10 9 9 7 9 11 14 17 17 15 12 10 9 9 9 9 11 9 11 16 18 20 20 16 12 12 12 11 11 12 14 12 10 10 10 10
12 10 9 8 7 8 11 14 18 19 17 15 13 10 9 9 10 12 11 13 14 19 23 22 14 12 14 15 13 13 12 13 13 13 14 12 10 10

GFSNE_250_rhum_033.txt.gz
RH
100 100 100 100 100 100 100 100 100 100 100 100 92 83 86 92 85 85 71 58 70 78 73 71 66 63 58 57 60 56 51 47 46 45 46 47 50 54
100 100 100 100 100 100 100 100 100 100 100 100 84 83 91 84 78 84 63 60 64 80 69 65 65 64 60 52 49 47 41 40 42 45 47 50 52 51
100 100 100 100 100 100 100 100 100 100 100 100 100 98 98 84 88 56 52 57 66 63 62 60 64 62 52 45 41 40 48 48 45 42 40 39 39 39
100 100 100 100 100 100 100 100 100 100 100 100 100 96 80 62 64 57 62 55 59 60 58 53 50 45 36 39 44 40 37 32 29 29 28 26 25 24
100 100 100 100 100 100 100 100 92 100 100 100 100 99 73 58 60 50 51 56 59 61 56 52 44 43 42 37 31 32 27 21 24 23 18 14 12 12
100 100 100 100 100 100 94 87 100 100 100 100 96 73 77 67 46 50 56 59 63 56 51 45 44 41 34 33 26 22 20 19 14 9 7 6 5 5
100 97 100 95 81 94 89 100 100 100 99 94 72 60 52 53 54 54 60 59 54 49 47 54 42 42 37 28 20 16 16 11 8 5 4 4 3 3
100 90 77 85 96 98 100 100 100 100 74 64 65 54 50 61 61 51 53 52 56 50 52 57 40 44 31 20 12 10 8 5 4 4 4 4 4 4
94 100 100 100 100 100 100 100 95 80 75 63 57 61 66 66 57 61 57 53 58 54 47 54 43 45 34 20 8 6 5 5 5 4 5 4 4 4
100 100 100 100 100 100 93 88 75 70 59 66 72 82 69 59 59 57 62 60 52 48 36 46 42 38 28 9 5 5 6 6 6 6 5 5 4 4
100 100 100 100 97 83 74 53 63 69 83 88 74 58 54 56 62 66 59 54 51 42 34 42 31 14 9 5 5 5 7 7 6 6 7 6 5 4
77 77 87 91 85 63 70 98 98 94 78 61 56 64 67 70 64 54 47 42 39 37 29 16 10 8 10 6 5 5 6 6 7 7 7 6 6 5
87 89 87 67 73 75 74 76 80 81 73 69 69 67 63 52 44 43 41 37 30 13 10 10 10 9 9 11 7 6 6 6 7 6 7 8 6 6
91 82 84 85 87 89 87 81 75 68 65 67 57 45 42 41 41 37 26 12 9 8 8 10 10 10 11 11 9 7 7 5 9 6 7 9 9 7
99 97 91 91 89 84 83 87 81 60 46 42 43 40 39 37 22 12 9 8 8 8 10 12 13 10 9 10 11 10 9 6 12 10 11 13 12 10
96 97 100 100 99 84 75 58 49 47 42 39 37 34 20 11 9 8 8 8 9 9 12 10 10 9 9 9 14 11 11 14 12 13 13 15 13 12
87 84 84 88 81 71 58 47 39 39 37 31 20 12 10 8 8 10 12 12 11 10 7 8 10 10 8 14 16 15 17 17 17 14 13 13 12 13
75 74 70 65 58 49 42 40 35 29 21 12 10 8 7 9 10 13 11 10 10 8 9 10 10 8 10 14 23 22 20 19 16 12 10 9 9 9
62 58 53 48 44 39 33 28 21 13 10 8 7 7 9 12 13 12 9 9 8 9 11 13 10 14 16 16 19 16 13 12 10 10 9 9 8 8
54 48 42 38 32 23 16 12 10 9 8 6 8 10 13 14 13 12 10 10 9 10 11 13 15 19 23 20 14 13 13 11 10 11 11 10 8 8
42 36 29 21 13 10 10 9 8 7 7 9 11 16 18 16 14 12 10 10 11 12 12 14 20 21 18 15 14 15 15 16 12 11 10 11 12 13
32 22 15 11 9 8 8 8 7 7 10 11 16 19 18 14 11 10 10 10 12 13 17 22 22 18 16 16 17 15 14 16 18 18 16 14 12 13
24 15 10 8 8 8 7 6 8 10 10 14 17 17 16 11 10 10 10 12 12 16 21 22 18 16 17 18 16 16 17 19 18 17 20 16 13 13

GFSNE_250_rhum_036.txt.gz
RH
100 100 100 100 100 100 100 100 100 100 100 100 100 100 100 100 100 100 100 96 94 86 78 73 57 67 64 58 55 58 66 62 63 59 56 60 64 59
100 100 100 100 100 100 100 100 100 100 100 100 100 100 100 100 82 93 79 87 93 94 72 59 56 61 60 56 57 57 57 54 52 50 47 45 46 49
100 100 100 100 100 100 100 100 100 100 100 94 100 100 100 100 83 65 71 66 59 59 48 54 60 58 56 51 48 52 52 54 51 50 46 47 45 48
98 100 100 100 100 100 100 100 100 100 100 96 100 100 100 100 100 100 100 93 82 64 49 56 56 56 57 57 47 48 50 50 46 43 38 40 36 32
73 80 100 100 100 100 100 100 100 100 100 100 100 92 85 92 98 97 100 75 61 58 55 57 55 59 57 49 50 47 43 38 36 38 36 33 32 27
54 70 97 100 100 100 100 100 100 100 100 100 100 100 98 91 98 93 91 77 61 54 50 56 57 48 50 50 44 39 34 32 33 34 33 29 21 14
64 64 72 80 99 100 100 100 100 100 100 88 86 80 99 86 100 92 83 64 66 55 53 55 53 49 45 47 41 34 33 32 32 32 25 13 9 7
87 81 79 82 88 83 92 86 81 82 86 85 91 100 88 78 83 66 54 59 61 58 63 60 49 58 53 43 39 30 27 24 18 14 9 6 5 4
100 98 100 91 89 96 88 93 99 95 83 83 97 81 71 63 67 56 55 60 60 60 59 63 52 55 46 40 30 24 15 11 9 7 6 6 6 5
99 98 86 84 83 97 99 92 80 70 76 73 64 65 68 71 70 71 69 70 63 54 51 58 49 48 49 36 21 10 8 8 7 7 6 6 7 6
92 98 100 90 82 89 74 74 68 66 69 69 75 76 80 76 68 62 63 54 52 49 49 47 42 42 38 19 8 7 7 8 8 8 9 8 8 6
77 77 76 78 78 74 79 76 82 82 81 80 81 81 74 67 56 47 43 47 49 44 41 41 33 21 13 9 6 6 7 8 8 8 7 8 9 6
84 83 82 77 76 81 89 97 97 93 90 91 85 72 63 51 44 44 42 38 35 32 31 23 12 10 8 11 9 7 8 7 6 6 7 8 8 8
100 100 100 100 100 100 100 100 100 100 95 77 58 45 40 39 37 34 33 32 28 17 10 10 10 12 12 12 12 8 8 7 6 7 6 7 11 12
100 100 100 100 100 97 97 85 74 61 50 45 41 38 37 36 35 30 25 16 10 10 8 12 16 14 10 10 11 9 10 7 7 7 6 10 13 15
78 80 81 79 75 69 64 58 52 48 43 37 36 34 29 23 15 11 10 9 8 7 11 16 15 12 10 10 11 13 8 10 10 11 12 14 14 14
77 72 67 62 59 54 50 45 42 37 32 24 16 14 10 10 10 9 8 7 8 10 12 14 14 11 9 10 14 12 12 13 17 18 16 15 13 10
68 62 57 53 51 46 41 34 26 20 16 12 10 9 8 8 8 7 8 10 13 14 14 13 10 9 9 11 17 17 17 20 19 18 16 12 12 11
62 58 54 47 42 35 30 25 21 14 9 8 8 8 8 6 7 9 13 16 15 14 12 12 11 10 10 9 22 23 21 18 14 14 14 14 11 12
63 55 47 39 37 31 25 17 11 8 7 8 8 7 6 8 10 14 15 14 14 12 10 13 14 13 15 19 21 20 20 18 15 14 13 14 15 14
58 48 38 40 37 26 15 10 7 7 7 6 7 9 10 10 15 16 14 14 14 12 11 13 14 17 23 25 19 14 17 19 19 17 16 12 11 16
51 40 44 40 23 13 9 8 7 7 6 8 10 10 12 16 16 14 12 13 12 12 14 15 20 25 23 17 17 18 18 21 32 36 38 38 24 10
44 45 44 24 14 9 8 7 7 8 10 11 11 14 16 16 14 12 11 12 11 12 15 19 24 19 17 20 23 21 24 24 24 22 36 52 46 31

GFSNE_250_rhum_039.txt.gz
RH
74 93 100 100 100 100 100 100 100 100 100 100 100 100 100 100 98 100 100 100 100 86 100 93 74 81 72 66 52 49 67 76 76 73 66 60 63 69
57 76 96 100 100 100 100 100 98 100 100 100 100 92 80 100 98 100 100 100 100 96 89 100 87 75 76 77 59 66 65 62 60 55 57 58 59 53
52 63 69 85 100 100 100 100 100 100 100 100 96 100 100 100 100 100 100 100 100 99 92 99 95 85 94 70 73 67 67 48 45 50 53 51 51 51
52 62 57 58 73 99 100 100 100 100 100 100 100 100 100 100 100 100 100 100 100 100 99 93 83 65 77 75 72 72 63 58 51 56 57 62 59 50
43 58 65 65 57 59 70 100 100 100 100 100 100 100 100 100 96 90 91 88 84 94 88 80 82 77 67 65 61 50 52 48 50 52 49 50 49 46
32 39 59 72 85 75 65 64 79 97 100 99 100 100 100 100 100 100 93 83 83 73 62 65 67 65 58 61 59 54 49 44 44 47 44 42 42 40
26 33 44 64 92 97 96 88 72 73 81 86 86 98 94 76 65 69 69 70 80 81 71 69 68 57 60 56 51 44 42 45 44 43 44 43 40 34
23 32 42 60 100 100 100 100 94 76 70 77 91 82 80 100 81 84 74 72 65 72 61 61 58 60 55 47 44 45 48 46 44 42 41 37 32 24
24 34 48 75 100 100 100 100 100 88 82 78 76 75 77 86 76 72 76 71 67 66 66 69 49 46 47 46 46 47 44 41 38 36 32 25 16 8
61 77 90 98 97 97 100 98 91 97 95 88 89 87 77 82 82 84 83 76 65 54 48 54 46 52 51 46 42 38 36 31 26 20 12 8 7 8
93 96 98 97 91 88 84 91 92 86 79 86 84 83 81 84 87 76 63 57 49 44 47 47 46 46 43 38 36 31 20 16 10 9 8 9 9 10
70 71 73 74 78 85 86 86 84 92 98 95 97 96 86 81 73 57 49 47 46 41 40 40 39 38 42 28 18 12 10 8 8 10 12 12 9 8
93 91 92 95 96 99 100 100 100 100 97 94 83 69 60 53 49 45 42 38 35 35 33 31 22 16 13 11 10 6 6 8 11 10 8 8 8 9
80 85 91 92 90 87 85 87 90 87 76 66 61 55 50 48 43 37 35 32 25 17 12 10 10 10 9 7 7 6 9 9 8 7 8 8 9 8
90 90 92 92 90 88 82 77 66 58 56 53 51 47 41 34 27 24 19 14 9 9 8 8 8 8 7 9 10 10 11 7 6 8 8 8 9 10
83 82 80 77 74 71 63 57 56 54 48 40 32 23 19 19 16 11 8 8 7 8 8 8 8 11 12 12 12 12 9 8 8 8 8 8 12 14
83 84 85 82 75 65 60 57 50 38 32 29 26 20 13 9 7 7 7 8 7 7 7 12 15 17 15 12 13 10 10 9 11 11 13 12 14 14
89 88 82 77 70 62 54 46 40 40 36 24 13 10 7 7 7 7 7 7 7 9 10 15 17 17 13 9 12 11 10 12 14 17 19 14 13 13
90 86 81 75 63 58 50 47 45 34 19 12 8 7 7 6 6 6 7 10 10 13 16 17 14 12 8 8 10 14 14 16 16 16 15 14 15 17
90 86 76 66 61 53 51 48 34 16 11 8 8 7 6 7 8 10 10 12 16 16 14 12 11 10 9 10 10 20 21 18 17 15 15 17 17 18
93 81 70 61 58 52 50 35 16 11 9 8 7 8 9 10 10 12 14 16 16 14 11 8 9 11 12 14 17 19 18 18 19 18 18 19 16 12
89 75 64 59 55 52 40 17 11 9 8 9 10 12 12 13 15 14 14 13 11 11 9 8 9 12 14 19 19 16 16 20 24 34 47 48 44 26
81 68 59 60 55 49 21 12 9 11 12 13 14 14 15 15 16 14 12 10 8 7 9 9 12 14 20 19 15 17 20 21 30 32 44 50 45 40

GFSNE_250_rhum_042.txt.gz
RH
24 24 28 36 45 62 70 87 100 100 100 100 100 100 100 100 100 100 100 100 92 96 97 86 82 100 88 81 88 80 91 90 92 98 91 89 80 73
26 30 36 35 41 47 50 57 67 83 100 100 100 100 100 100 100 100 100 86 78 80 80 91 98 100 91 89 94 100 100 100 88 86 75 68 77 84
29 29 33 38 40 48 62 61 66 67 72 100 100 100 100 100 100 100 100 100 100 100 100 100 95 100 100 100 96 100 99 94 89 86 80 89 68 84
15 18 26 32 37 41 47 68 78 90 73 92 100 100 100 100 100 100 100 100 100 100 100 100 100 100 100 86 71 73 79 92 71 78 79 76 86 63
6 7 12 18 29 35 44 56 74 81 92 79 98 100 100 100 100 100 100 100 100 100 100 100 100 97 86 75 76 66 69 76 75 64 62 56 50 46
5 6 10 16 24 33 52 71 83 91 92 99 93 79 79 99 100 100 100 100 100 100 100 100 96 86 72 62 70 68 60 60 64 60 56 53 52 51
5 6 10 13 18 25 43 76 94 100 98 95 100 100 100 98 99 100 99 84 86 80 78 75 70 63 65 77 59 53 49 52 51 50 48 47 50 52
10 11 12 14 20 28 43 63 96 93 98 96 100 100 100 100 99 100 100 96 80 68 65 76 77 70 70 52 45 42 42 44 48 52 53 50 48 44
33 33 31 24 31 40 54 72 83 86 83 92 92 96 98 100 95 97 91 92 87 84 76 67 58 51 45 41 43 44 43 44 43 42 41 39 36 34
43 43 55 66 70 75 75 79 84 90 100 100 100 100 100 96 91 83 74 66 57 51 48 44 46 45 44 42 40 38 38 36 35 33 30 29 27 25
57 57 58 62 66 68 77 90 98 96 94 90 86 80 70 64 62 58 54 53 50 48 49 48 45 45 41 35 32 30 26 24 22 18 15 14 13 11
64 66 71 74 77 79 84 86 86 87 86 83 78 72 70 73 72 68 61 57 56 52 50 46 39 40 38 24 21 17 13 11 10 9 9 9 8 7
70 72 77 79 81 81 82 82 79 77 78 78 77 75 75 72 69 65 64 59 51 43 35 34 28 23 21 24 12 8 8 8 8 8 8 6 7 11
79 82 82 82 87 90 89 90 93 92 87 82 78 75 70 64 57 49 40 32 28 25 21 18 14 11 9 8 7 7 7 6 6 7 8 8 13 12
87 91 93 94 93 92 89 84 80 75 74 72 64 57 47 39 37 34 30 24 14 10 9 8 7 7 7 7 7 6 6 5 8 11 10 11 9 9
93 91 88 85 83 79 73 74 73 70 68 60 49 44 43 39 28 16 11 10 8 7 6 6 6 7 6 6 6 7 8 13 11 9 10 9 10 11
87 88 88 86 82 74 67 68 66 65 58 49 43 41 32 14 10 8 8 7 6 6 6 6 7 8 9 8 9 13 14 14 11 9 10 10 10 15
90 91 90 83 73 66 65 64 62 58 51 44 39 24 12 9 8 8 8 8 7 8 8 8 10 12 14 12 15 14 13 12 9 10 12 12 15 18
86 90 85 76 71 65 65 63 58 51 46 39 26 12 9 8 8 9 10 10 10 10 9 9 12 19 21 16 9 10 16 9 11 12 17 19 18 19
94 92 81 76 69 62 60 56 58 50 44 30 13 9 10 11 11 13 13 12 13 13 12 12 14 15 13 12 10 8 15 12 15 18 20 17 16 18
95 87 79 72 65 59 53 56 55 47 34 14 10 10 12 12 11 12 14 14 14 14 12 10 9 10 10 10 8 9 12 16 20 17 17 19 20 22
87 79 72 70 63 54 52 57 49 37 16 10 10 11 9 9 11 12 13 13 11 12 12 10 8 10 9 9 9 11 19 19 18 19 22 31 32 20
79 78 76 69 56 52 57 56 44 20 11 11 12 9 9 9 10 10 10 10 10 9 8 8 8 9 10 11 15 16 16 20 26 36 51 60 57 55

GFSNE_250_rhum_045.txt.gz
RH
28 19 22 24 29 33 38 46 47 50 57 55 61 63 68 72 100 100 100 100 100 100 100 87 95 100 93 93 98 97 85 82 88 86 100 84 92 91
27 26 25 26 26 28 34 35 40 41 47 52 56 68 74 100 94 100 100 100 96 100 100 100 100 100 100 100 100 100 88 94 98 78 85 100 100 100
32 25 23 19 16 15 17 26 31 39 43 47 54 62 74 100 100 100 100 100 100 100 100 100 100 100 100 100 95 97 100 78 79 100 100 100 100 100
26 16 14 11 8 7 10 12 20 31 38 54 67 74 81 100 98 96 100 90 100 100 100 100 100 100 100 100 99 100 100 100 100 100 100 100 92 83
25 16 14 10 7 5 4 7 14 25 32 60 79 88 99 100 92 100 100 98 100 100 100 78 100 100 100 100 100 100 100 100 99 100 78 76 69 73
32 25 16 12 7 5 4 7 12 20 39 71 98 96 92 100 100 100 100 100 100 100 100 100 100 97 100 100 92 98 87 90 96 77 75 69 68 68
38 32 26 22 17 10 8 10 15 20 28 51 88 100 100 100 100 100 100 100 100 100 100 100 100 100 100 98 79 85 84 86 74 74 71 62 56 54
36 33 35 31 33 33 23 27 35 37 47 60 72 87 96 93 92 90 94 97 95 95 95 100 100 86 73 70 80 75 75 69 60 56 53 55 56 54
43 44 40 39 42 38 41 46 52 60 68 74 84 92 94 96 97 99 91 94 89 85 84 75 72 68 70 68 64 58 54 54 52 48 44 42 41 40
52 52 50 50 48 42 44 48 51 55 59 61 64 68 71 74 79 76 71 69 67 69 75 66 62 58 55 52 50 46 42 38 37 37 37 35 34 32
57 54 56 60 61 60 64 68 72 77 80 81 84 87 87 84 86 82 83 81 79 75 76 73 65 61 52 45 39 35 32 30 27 25 23 21 19 17
59 61 64 68 74 77 77 76 79 83 89 91 91 94 94 91 89 87 86 86 84 79 74 65 51 46 38 28 26 24 22 20 19 19 17 14 12 11
69 73 76 78 77 78 82 84 83 85 84 85 85 86 83 85 88 84 77 70 63 56 49 44 39 42 44 32 20 17 13 10 9 9 8 7 7 7
68 70 73 75 79 80 81 82 85 81 79 73 68 69 70 72 66 60 55 46 40 38 36 31 22 16 12 11 8 7 6 6 6 7 7 7 8 7
81 82 87 87 83 76 72 72 75 72 67 65 68 66 63 58 51 42 40 41 34 22 13 10 9 8 8 8 8 6 6 6 6 6 6 6 7 11
87 92 91 87 81 77 75 78 76 73 66 62 64 62 54 46 37 39 36 23 12 9 8 8 8 8 8 8 8 6 5 7 6 9 11 10 13 19
92 97 96 92 85 81 78 77 72 64 61 60 57 53 43 38 40 31 14 9 8 8 8 10 11 13 13 11 8 9 8 7 11 14 12 11 11 12
99 98 92 86 83 76 75 69 64 58 59 57 51 41 38 36 23 11 9 11 12 12 11 10 12 16 17 14 11 12 9 13 13 14 12 11 9 11
94 86 85 79 74 75 70 64 57 59 57 51 43 40 33 18 10 9 11 11 10 10 10 11 13 17 20 17 13 11 13 12 16 12 10 12 10 14
79 76 72 71 71 70 66 58 57 57 51 42 40 31 17 10 10 11 10 9 10 10 11 11 13 15 16 16 12 5 6 14 13 8 10 13 16 19
71 71 71 72 71 69 62 61 59 50 43 42 34 18 10 11 11 9 9 9 9 9 10 9 10 11 11 13 11 7 7 12 10 11 14 18 20 18
77 76 75 76 71 64 60 62 47 44 45 37 22 11 12 12 10 9 8 7 6 7 8 8 7 8 8 10 9 9 10 12 13 16 18 17 17 17
81 78 84 74 62 62 61 49 47 49 42 24 12 12 12 11 10 10 8 7 7 6 6 6 7 9 9 10 10 11 15 16 15 13 16 24 29 30

GFSNE_250_rhum_048.txt.gz
RH
84 53 38 32 27 31 31 28 28 26 24 28 24 31 38 47 60 78 71 78 100 100 100 100 100 100 100 100 100 100 100 100 100 67 91 97 90 75
52 39 32 38 44 40 30 22 15 15 13 16 20 27 37 44 48 75 82 73 93 100 100 100 100 100 100 100 100 100 100 100 95 100 100 100 96 98
36 34 45 48 45 37 25 16 14 12 8 8 12 20 34 57 60 67 70 79 82 100 100 100 100 100 100 100 100 100 100 100 100 100 100 100 95 98
35 46 45 43 38 32 28 20 16 9 7 5 8 10 14 57 99 100 100 96 98 100 100 76 100 100 100 100 100 100 100 100 100 100 100 86 100 100
48 45 47 39 37 35 33 26 17 12 6 5 7 12 20 49 100 100 100 100 100 98 100 100 98 100 100 100 100 100 100 100 100 100 100 100 100 100
46 50 40 38 38 40 37 35 29 22 13 11 15 24 34 51 100 100 100 100 100 100 100 100 100 100 100 100 100 100 99 96 100 100 100 100 100 95
53 46 41 42 44 45 43 38 36 36 34 29 33 30 42 55 77 87 99 100 100 100 96 99 100 100 100 100 97 100 100 99 98 99 97 91 74 79
49 46 48 49 54 48 43 42 48 46 43 43 50 55 58 67 74 92 90 88 87 85 86 78 79 84 93 98 87 86 92 97 89 92 88 91 87 84
50 49 53 53 57 54 51 48 45 48 52 58 58 57 56 62 71 75 72 71 76 74 75 73 70 73 71 70 69 71 74 87 91 82 84 83 79 69
49 54 57 61 60 62 65 66 63 61 62 61 64 65 65 66 68 71 74 78 82 82 85 80 81 76 77 75 72 71 72 70 68 65 62 58 53 50
55 62 66 66 68 65 66 69 70 70 70 68 67 74 83 91 97 95 93 92 92 91 94 92 87 78 73 66 61 58 56 53 50 47 44 41 38 34
59 62 65 69 76 81 79 78 74 69 65 62 63 68 72 74 75 76 75 75 72 72 73 74 67 63 60 57 55 51 49 45 39 34 33 31 29 28
66 68 76 88 96 93 85 78 76 71 67 65 66 70 70 67 66 63 62 63 59 54 54 55 52 50 47 42 42 40 42 38 32 26 21 15 12 10
81 83 91 95 95 93 86 84 83 76 71 70 71 68 68 65 64 64 59 54 46 42 41 41 40 39 38 29 21 15 11 9 9 8 8 9 8 7
93 99 100 100 94 87 86 86 78 74 72 67 64 64 63 63 62 54 46 40 38 39 40 38 30 20 13 10 9 7 7 8 7 8 8 9 8 8
100 100 97 87 89 92 87 76 74 67 65 63 60 60 60 57 48 41 37 38 40 35 22 13 10 10 12 12 12 9 7 8 6 8 13 12 10 10
100 90 87 92 90 85 80 72 70 70 70 64 60 56 54 43 37 38 40 36 22 11 9 10 11 11 11 11 12 10 9 8 8 8 11 14 12 13
84 86 86 82 82 80 77 77 77 75 66 56 56 59 45 41 41 39 29 14 10 10 10 8 8 10 12 14 13 12 10 10 10 12 13 16 14 11
77 78 79 82 90 89 88 88 82 72 58 56 62 50 48 46 40 22 11 12 11 10 9 8 8 9 10 12 12 11 12 10 10 10 10 11 12 6
93 96 98 98 95 90 91 82 73 64 54 60 57 49 47 41 20 12 12 10 11 10 8 7 8 9 8 9 11 6 8 11 10 11 10 9 8 9
98 96 91 88 87 94 86 76 74 57 60 60 52 48 41 26 14 13 12 12 12 11 8 7 8 8 8 8 7 6 5 8 13 14 7 9 11 10
97 94 87 86 96 92 83 83 62 59 64 60 51 43 34 18 16 15 14 12 10 11 10 10 10 10 10 10 10 10 9 10 10 8 10 13 14 14
88 87 93 100 96 90 88 71 58 65 58 54 46 38 23 19 19 18 16 14 14 13 12 12 12 12 12 13 13 14 14 16 15 14 15 14 14 15

GFSNE_250_rhum_051.txt.gz
RH
63 43 40 51 53 47 30 27 28 35 38 36 28 24 19 14 16 25 44 29 41 48 59 77 100 100 100 100 100 100 100 97 84 100 100 91 100 85
38 43 53 48 38 32 29 38 40 35 34 36 29 22 17 10 7 12 28 33 40 54 70 80 92 100 100 100 100 96 100 100 97 90 100 100 100 89
46 55 60 42 33 30 43 46 42 37 36 37 34 25 18 9 5 6 13 26 38 73 99 75 79 100 100 100 96 93 100 100 100 100 100 100 100 100
66 62 44 36 36 42 45 45 41 43 41 42 40 32 22 14 8 10 12 21 51 84 100 99 100 100 100 100 100 85 100 100 100 100 100 100 100 100
59 47 38 40 44 44 48 42 46 43 42 43 43 39 30 25 24 23 29 58 72 88 100 100 100 100 100 100 100 100 100 100 100 100 100 100 100 100
45 36 41 44 47 52 46 44 47 45 45 46 44 42 47 50 45 42 44 58 73 73 100 100 100 100 100 100 100 100 100 100 100 100 100 100 100 100
37 40 45 49 55 52 46 47 49 49 50 45 43 44 44 45 51 58 58 54 59 78 82 93 100 100 100 100 100 100 100 100 98 85 100 100 100 100
41 49 51 52 58 49 49 54 53 50 51 54 53 53 53 46 42 43 54 67 73 72 68 73 88 94 88 88 89 100 100 100 100 100 92 96 93 86
48 53 51 54 55 54 57 56 56 58 61 66 69 63 58 52 57 56 57 59 64 75 90 94 90 96 92 94 98 84 85 88 90 94 94 96 95 87
54 54 54 58 61 59 56 59 64 71 75 72 71 64 59 57 60 63 70 76 78 79 84 83 70 68 72 80 86 87 87 85 84 83 80 75 72 70
56 56 57 61 63 60 60 69 75 79 83 79 69 65 60 56 57 57 59 62 65 67 71 75 75 73 73 73 70 66 60 60 59 55 54 53 53 54
53 55 57 62 69 72 79 84 89 91 86 76 73 63 59 59 61 63 63 63 62 58 59 59 55 55 56 58 58 57 56 55 52 49 47 44 41 40
55 57 65 74 81 86 92 94 93 92 85 82 67 64 63 64 66 67 64 56 52 49 51 51 45 43 43 42 42 40 41 41 39 37 37 36 36 36
68 75 83 86 93 97 93 93 96 93 86 70 68 68 70 70 72 71 55 49 49 46 41 39 38 38 39 38 37 32 32 28 24 19 16 14 13 12
85 90 96 98 93 89 95 95 90 77 73 75 78 78 74 73 77 61 51 53 45 38 38 40 39 33 22 14 12 10 9 9 10 10 10 11 13 14
83 86 87 87 84 80 76 75 78 79 82 86 82 79 77 77 67 51 51 49 40 38 36 26 14 12 12 12 13 10 8 10 8 10 12 12 14 14
68 72 74 75 77 80 82 87 84 83 82 84 86 79 78 72 55 53 51 42 39 32 16 14 15 13 12 10 10 9 8 7 8 10 13 15 14 13
74 75 76 79 81 85 89 87 89 87 90 89 82 82 73 64 56 56 47 42 34 19 14 13 13 14 12 10 8 8 6 7 8 10 13 16 15 14
71 73 74 72 74 77 80 85 93 99 92 86 81 73 72 61 63 47 44 37 24 17 16 15 13 12 11 9 6 6 9 7 7 8 9 10 11 8
79 78 76 78 82 84 93 95 88 90 86 81 73 70 65 64 47 45 41 34 20 21 16 15 14 12 11 10 8 7 10 9 7 6 6 7 7 6
85 81 78 78 85 95 93 85 90 87 86 75 66 63 58 46 43 43 41 23 22 21 18 18 18 16 14 13 13 11 10 11 10 10 10 11 11 10
80 79 88 95 99 92 87 95 91 81 71 62 57 47 43 42 40 41 33 20 22 20 20 23 27 26 25 22 18 15 14 13 12 12 13 14 13 13
78 85 100 100 96 93 99 93 84 66 55 51 44 41 41 36 36 34 23 21 23 20 24 33 44 40 36 37 35 32 33 30 29 27 20 19 18 16

GFSNE_250_rhum_054.txt.gz
RH
89 90 78 74 61 37 32 33 29 38 38 42 42 46 40 37 35 37 34 25 16 8 8 19 30 44 67 82 100 100 100 100 100 100 100 98 99 95
91 77 75 56 35 40 40 35 31 31 36 42 47 45 41 40 38 36 36 25 17 8 8 13 38 53 52 82 100 100 100 100 97 100 100 93 98 100
69 59 45 34 49 48 38 33 34 34 40 44 48 43 44 42 42 36 32 26 24 17 14 23 38 54 60 89 100 100 100 100 100 100 100 100 99 97
43 41 41 58 66 39 33 34 35 45 45 47 48 44 50 48 44 40 34 33 32 27 31 39 48 70 70 99 100 100 100 100 100 100 100 100 100 100
41 55 60 65 40 34 37 37 45 48 46 54 47 46 50 49 48 49 45 38 34 40 46 43 61 80 95 100 100 100 100 100 100 100 100 100 100 100
62 76 64 44 38 36 38 46 49 49 55 55 47 52 51 51 50 46 43 47 52 47 47 58 60 61 76 87 92 85 100 100 100 100 100 100 100 98
74 64 41 41 36 37 41 50 52 54 61 55 53 54 55 58 58 53 51 53 50 53 60 60 64 66 68 72 78 88 79 77 91 100 100 100 100 100
55 39 38 34 37 40 46 51 58 60 63 60 59 61 65 74 68 60 63 58 59 59 62 62 64 63 69 78 79 80 78 88 98 98 98 100 100 100
42 35 35 38 42 45 46 56 60 60 63 70 70 74 82 81 69 66 64 60 63 66 72 69 69 69 68 71 69 68 70 73 81 84 84 84 88 90
36 37 37 40 43 47 52 62 66 68 69 72 78 90 89 80 79 70 63 62 63 64 68 71 64 60 58 59 59 64 70 77 78 72 68 68 73 75
39 38 40 46 49 55 60 65 67 70 77 88 90 87 86 86 76 67 68 67 63 64 66 68 61 50 46 49 53 55 54 53 54 56 57 57 58 59
41 44 49 53 59 63 70 77 82 89 92 89 87 88 77 71 70 72 75 68 64 65 66 58 42 42 46 50 48 45 43 43 45 46 44 43 43 43
47 51 53 56 64 71 77 84 88 81 80 78 72 74 78 78 79 77 72 68 67 65 66 52 40 42 45 44 43 44 43 42 43 42 40 38 38 39
56 59 62 69 71 76 79 72 67 66 66 73 80 84 83 80 75 71 70 72 69 66 59 51 46 43 41 43 38 24 18 14 12 11 12 14 15 17
70 67 65 65 67 69 69 70 72 76 80 82 82 76 74 72 73 76 78 75 66 62 52 49 46 43 43 30 16 10 12 11 12 12 11 12 12 12
78 73 72 76 74 69 69 72 75 76 78 77 74 75 72 73 76 76 70 69 64 54 51 42 40 43 30 16 16 13 11 12 10 12 15 14 12 12
89 82 80 79 74 69 77 80 79 78 81 86 80 79 85 82 78 69 65 64 57 47 36 39 47 43 21 18 15 14 12 10 9 7 8 10 10 8
91 87 82 79 70 75 85 86 81 84 92 82 83 91 87 81 75 66 56 55 48 39 38 37 39 31 24 19 19 20 13 10 8 8 9 10 9 8
86 89 86 78 73 76 85 85 84 89 92 91 96 92 88 83 72 51 46 43 42 42 39 38 33 27 25 20 16 21 17 14 12 9 10 10 8 7
80 79 77 78 85 85 86 94 93 91 93 98 98 92 83 71 50 44 40 42 43 41 37 30 24 25 24 24 25 31 28 22 16 14 12 12 11 10
75 74 72 77 87 91 98 91 86 89 95 100 91 77 63 48 43 42 41 40 38 35 31 20 16 22 23 30 39 45 48 44 36 29 23 16 13 13
70 71 75 82 90 99 86 85 89 90 96 86 73 54 44 39 37 33 33 30 28 24 17 14 15 20 23 37 38 40 39 42 43 40 31 31 28 24
70 70 78 92 92 84 88 87 86 86 75 57 45 41 32 28 27 26 26 27 20 14 13 13 14 17 31 37 38 40 51 43 42 36 45 35 29 28

GFSNE_250_rhum_057.txt.gz
RH
100 100 100 99 82 75 56 38 24 29 50 64 52 35 34 36 44 45 46 41 40 38 32 23 19 18 8 10 25 45 58 88 100 90 66 71 90 100
100 98 93 80 64 49 33 24 25 36 54 59 36 36 38 45 47 50 48 45 47 42 41 27 20 17 17 19 35 58 85 96 100 100 94 95 91 79
86 79 61 50 37 28 26 33 33 42 50 35 36 38 42 50 50 53 48 48 46 45 46 33 22 21 26 40 58 62 66 71 85 100 100 100 91 100
44 46 41 36 32 29 31 34 38 45 36 35 36 38 50 53 54 55 52 54 51 59 54 48 41 40 45 47 57 69 96 91 85 100 100 100 100 100
38 38 38 38 33 34 38 44 43 31 33 35 40 43 56 54 60 59 59 59 62 70 68 54 53 56 55 57 65 64 69 89 96 100 98 100 100 100
52 43 46 42 45 41 47 41 31 33 34 39 44 53 54 56 62 67 68 68 74 73 72 68 61 60 57 60 62 61 69 73 84 86 100 100 100 100
47 60 56 52 47 51 34 32 32 34 37 44 52 56 60 60 64 67 72 76 75 71 70 67 66 68 71 68 60 57 63 72 76 73 81 98 100 95
76 67 70 58 56 35 32 30 33 37 43 48 52 58 59 64 66 78 81 79 79 73 66 64 62 61 64 66 70 70 71 61 58 61 72 69 72 95
81 77 75 51 35 34 32 36 41 45 48 52 53 55 64 78 84 87 88 79 72 70 71 66 66 65 62 64 66 68 67 58 52 53 55 63 75 78
80 81 60 44 42 37 40 46 52 49 56 61 66 79 88 91 93 86 75 70 70 74 74 71 66 65 65 66 66 64 56 48 42 40 46 49 51 59
87 59 55 52 47 44 48 51 56 59 63 70 76 80 80 74 69 70 72 76 75 71 67 68 69 67 64 63 57 49 45 46 44 40 41 43 46 50
73 67 61 62 62 54 54 57 62 63 62 62 63 66 69 72 74 70 70 72 71 71 71 67 67 66 61 54 45 46 45 45 43 41 41 41 41 42
81 69 66 69 71 69 64 65 66 66 65 65 66 69 72 73 75 78 76 74 76 78 75 72 67 64 54 47 40 41 35 36 38 40 40 37 35 33
75 77 69 75 82 76 70 72 70 67 68 67 71 73 73 75 76 76 74 74 72 73 76 77 70 54 47 42 33 30 32 38 36 21 20 20 18 17
82 81 83 73 77 85 83 80 77 73 70 70 73 76 80 79 74 77 78 78 72 74 71 61 54 47 43 37 34 28 32 29 22 23 17 14 13 12
82 76 80 82 73 79 80 81 83 81 80 78 76 79 84 82 82 81 76 76 76 72 62 51 45 43 42 42 35 30 31 23 20 18 20 19 14 10
78 86 93 84 79 72 74 76 76 79 86 91 91 89 84 86 83 77 77 75 72 56 40 40 44 48 47 42 33 28 25 22 21 18 19 16 14 13
86 96 94 95 85 78 73 72 78 82 84 82 84 78 83 84 79 77 78 74 57 44 39 34 32 33 34 34 32 24 19 21 21 24 24 19 14 14
98 89 79 84 86 79 67 71 80 85 81 79 71 77 82 77 77 75 72 53 42 37 26 24 23 26 30 32 22 13 20 21 23 35 38 36 23 16
88 90 85 83 82 75 70 71 80 80 74 70 74 79 77 79 77 68 46 39 30 22 22 22 22 23 22 20 17 7 17 19 31 41 50 50 45 34
97 90 85 84 82 81 78 84 79 73 71 81 82 77 81 79 63 41 36 24 22 22 23 21 18 14 13 14 13 10 14 27 37 33 39 35 40 41
93 90 86 85 88 89 84 81 73 75 86 80 76 79 71 48 38 33 22 21 21 22 23 21 13 13 14 13 11 12 22 36 36 40 48 63 38 36
95 94 87 86 92 90 89 80 83 95 86 80 80 63 41 36 31 22 20 19 20 22 23 15 14 15 14 14 16 22 34 48 46 46 51 84 87 78

GFSNE_250_rhum_060.txt.gz
RH
100 100 96 90 86 88 82 74 58 45 38 43 43 32 30 36 40 30 34 37 39 48 48 47 48 47 38 24 21 21 14 8 21 56 95 93 88 100
100 96 86 82 79 73 59 46 40 40 41 40 32 34 41 42 32 34 35 40 49 51 52 52 55 58 53 35 24 25 21 24 38 62 98 100 100 100
87 79 71 55 48 39 46 49 44 41 37 32 36 37 38 32 36 36 41 44 54 56 55 60 62 69 74 56 45 41 38 40 62 75 83 100 100 100
78 62 41 31 38 40 56 54 43 44 36 29 30 34 29 33 36 38 44 50 58 58 58 63 62 75 74 67 55 55 55 59 62 84 88 91 76 84
55 39 32 41 76 58 61 53 58 45 37 28 34 29 30 33 38 40 46 53 60 60 64 64 76 77 68 67 65 62 59 58 58 68 80 98 100 100
36 40 57 80 80 69 68 55 65 44 34 35 29 30 33 38 41 45 50 58 62 67 69 73 79 66 63 61 63 70 70 68 65 63 63 65 77 99
46 54 77 64 77 68 56 61 53 40 35 31 31 34 39 45 45 53 61 67 76 83 86 80 65 59 59 61 63 66 70 72 67 65 67 65 63 63
58 91 93 75 85 63 72 64 54 39 35 34 36 43 50 53 60 68 77 78 88 71 63 63 66 68 62 62 61 62 64 66 71 80 82 78 73 66
90 77 81 81 72 76 94 75 49 43 41 40 44 53 63 68 69 70 73 71 68 66 64 64 67 68 66 65 66 67 67 64 64 65 63 60 60 62
81 80 74 96 95 82 75 63 56 58 62 54 56 62 63 61 61 63 64 64 67 67 68 67 68 66 65 65 68 73 74 68 66 60 50 47 46 45
67 94 100 100 78 95 94 73 63 62 75 69 63 61 62 63 63 62 66 69 71 72 72 68 68 70 70 71 77 84 80 66 55 46 44 44 47 47
100 98 100 98 94 93 81 79 68 68 74 78 73 68 68 72 70 69 72 76 82 80 75 75 78 77 75 78 84 81 64 49 43 42 39 38 38 38
100 96 95 93 100 100 88 70 77 71 72 78 84 81 79 80 81 78 76 74 72 70 75 77 76 77 79 83 74 60 47 42 40 37 38 40 40 40
100 98 98 100 99 89 75 67 80 78 75 72 74 82 86 85 82 83 81 79 75 77 81 78 78 80 84 78 54 43 39 41 42 42 41 41 37 34
98 100 100 100 94 81 70 73 83 76 72 77 76 74 75 78 78 74 71 68 72 78 75 78 83 83 76 57 45 36 33 31 32 37 39 35 28 25
93 100 100 100 100 86 68 72 72 80 72 72 77 74 69 71 70 70 71 70 76 78 78 81 82 77 56 44 35 25 24 24 23 28 32 30 26 20
100 100 100 99 88 82 73 77 77 80 78 73 84 82 76 67 70 71 72 84 77 73 78 83 80 55 46 32 23 22 21 21 22 25 28 27 23 20
100 100 86 83 84 74 75 76 80 83 80 82 87 82 71 68 73 74 88 84 76 78 78 60 41 38 28 23 21 20 20 19 18 17 20 20 16 19
98 97 88 77 78 75 77 75 79 83 84 86 89 86 76 75 76 88 84 82 81 75 48 35 32 24 20 20 21 18 15 12 13 15 14 13 14 24
77 74 81 85 80 77 78 76 77 84 88 90 87 82 82 77 79 80 80 83 72 44 35 29 22 19 19 21 24 14 10 14 14 11 10 12 17 36
87 88 87 86 81 76 80 83 87 92 92 89 87 88 85 81 81 83 87 63 38 35 29 20 18 18 20 24 21 14 15 15 13 11 13 24 32 32
90 96 93 88 83 84 91 97 98 98 94 93 88 85 84 81 85 86 54 37 34 27 20 18 18 20 21 22 16 24 31 25 21 22 26 38 38 30
88 89 89 89 91 100 100 98 95 92 92 88 84 84 80 87 78 42 36 32 25 21 18 20 22 21 21 18 27 42 43 41 37 34 39 42 53 55

GFSNE_250_rhum_063.txt.gz
RH
100 100 100 100 100 100 100 100 94 82 80 65 50 42 35 40 34 29 26 30 32 29 33 37 42 50 53 54 50 44 40 25 25 21 17 9 11 42
100 100 100 100 100 100 97 89 83 75 67 50 41 40 38 35 30 25 26 30 28 30 35 40 45 51 54 56 53 51 52 47 36 33 29 27 26 54
100 100 100 100 100 95 89 80 70 59 48 43 46 47 43 32 26 24 26 26 30 33 39 43 49 53 57 57 60 69 59 58 50 41 44 52 66 60
100 100 100 99 87 77 64 63 50 43 45 44 48 56 45 33 30 27 26 29 34 40 43 48 53 55 59 63 67 69 64 58 64 62 58 56 66 90
99 89 84 81 63 52 50 43 45 49 43 66 56 63 45 34 30 27 31 35 44 45 49 56 59 63 66 66 60 61 64 69 69 67 70 73 65 87
67 58 58 48 42 44 35 47 64 46 66 80 65 57 43 37 31 34 36 46 51 54 60 67 75 76 60 53 59 60 60 61 62 61 61 63 70 70
46 42 36 36 37 47 58 63 52 66 77 68 67 63 44 37 39 40 46 53 60 63 70 73 64 56 56 61 61 61 61 59 58 61 67 65 64 64
33 33 26 42 73 43 58 63 68 71 82 69 85 63 58 47 53 57 57 59 62 60 60 58 56 58 59 60 61 62 62 63 68 71 72 76 77 73
58 38 31 58 46 62 61 69 91 90 90 94 83 72 57 53 63 74 69 65 61 62 58 59 62 63 65 67 68 68 70 71 72 73 76 78 76 71
26 30 31 33 65 71 85 93 96 100 99 89 75 80 56 58 62 70 81 82 74 68 67 63 63 65 66 67 73 75 73 71 72 75 79 82 74 63
28 31 38 61 71 97 100 98 100 100 88 87 92 73 64 63 66 67 71 79 85 83 78 76 72 72 76 79 78 75 70 71 72 77 81 74 58 54
35 47 63 76 100 100 100 100 100 90 95 94 90 69 64 72 71 70 72 71 72 74 78 75 76 77 76 76 74 73 74 72 76 79 70 51 49 47
68 89 93 100 100 100 100 100 100 97 97 100 82 68 62 64 75 79 79 79 78 72 68 69 74 79 75 74 72 73 76 77 76 61 45 42 37 34
84 92 92 100 100 100 100 100 96 100 100 99 81 74 68 70 75 80 78 76 83 77 73 71 74 76 72 72 75 80 77 73 61 42 38 29 24 24
86 99 100 100 100 100 100 99 90 94 100 84 81 73 69 74 76 75 79 81 86 84 74 73 78 75 75 83 90 80 71 48 36 32 25 23 22 22
100 100 100 100 100 100 100 92 93 100 95 91 71 69 76 74 66 75 80 84 85 86 81 76 76 80 88 94 87 66 38 34 27 21 20 19 21 23
100 100 100 100 100 100 100 99 90 88 81 71 73 80 78 70 72 80 88 90 89 86 80 77 78 84 88 84 60 34 30 24 20 18 19 22 21 18
100 100 99 100 100 99 92 90 87 77 74 77 80 83 78 82 90 93 93 91 87 82 77 81 83 84 82 54 37 29 20 19 17 19 20 17 14 10
100 100 100 97 91 86 89 74 75 82 86 80 87 87 90 97 98 96 96 90 83 77 78 76 76 69 43 38 32 19 17 16 20 23 15 13 15 11
100 93 93 95 88 84 82 89 87 88 89 89 91 94 97 97 98 93 89 84 82 80 77 69 50 36 36 26 24 17 16 20 22 17 19 21 15 13
90 90 91 90 91 88 89 90 91 89 87 90 93 94 98 97 95 91 86 84 82 79 63 36 33 30 23 21 18 19 18 20 24 31 37 34 28 24
88 90 91 94 98 98 93 93 94 94 95 94 95 100 98 95 89 87 82 77 71 48 36 35 26 22 19 17 19 21 22 21 21 47 45 42 37 37
89 93 94 95 99 100 100 100 98 94 94 98 98 94 96 91 93 86 75 65 42 38 34 26 22 19 18 19 20 22 23 20 29 50 51 50 53 55

GFSNE_250_rhum_066.txt.gz
RH
100 100 100 100 100 100 100 100 100 100 100 100 99 82 79 66 52 44 37 32 32 25 22 21 22 27 32 38 40 46 52 53 52 53 38 32 27 22
100 100 100 100 100 100 100 100 100 100 100 100 94 74 64 48 41 39 30 36 32 25 24 22 26 32 40 41 48 55 58 62 66 60 41 42 41 34
100 100 100 100 100 100 100 100 100 100 97 83 76 64 49 38 38 33 49 43 31 31 27 27 33 42 43 47 56 59 66 80 74 56 51 48 50 52
96 100 100 100 100 100 100 100 90 84 75 66 55 45 42 39 42 63 49 40 39 33 32 35 43 47 51 58 65 74 83 69 62 62 67 63 57 56
73 80 86 89 96 88 80 75 69 63 57 50 40 45 43 52 64 69 61 46 43 39 39 44 49 54 62 64 69 64 61 58 57 60 60 59 59 58
50 67 63 68 78 68 62 71 63 46 50 43 44 60 60 75 77 75 60 60 47 42 49 57 58 59 57 56 56 59 57 58 61 64 65 64 64 66
57 50 67 55 49 58 74 48 51 46 42 42 50 58 80 86 90 78 77 64 59 45 56 64 68 68 65 63 61 60 58 59 62 65 68 70 75 77
46 49 58 68 57 58 56 88 59 39 39 35 81 90 90 92 81 94 73 66 58 46 57 62 69 82 81 76 72 68 65 65 65 68 73 68 67 69
46 75 58 43 68 64 55 55 63 36 40 64 80 100 100 89 97 86 72 77 68 58 62 64 70 71 75 83 89 87 82 76 74 73 69 64 65 68
32 32 30 32 32 32 37 32 33 52 77 84 100 100 96 100 100 87 81 84 64 61 66 69 68 72 75 74 71 70 73 75 74 71 71 69 67 73
33 33 32 32 32 31 33 35 71 78 78 100 100 100 100 100 98 85 85 82 67 68 65 67 70 72 72 72 72 66 64 69 72 70 70 71 76 80
31 33 35 34 35 36 44 65 99 92 100 100 100 100 100 89 90 89 90 90 71 69 68 70 70 73 74 77 81 76 68 65 71 75 74 80 82 83
36 35 35 35 45 64 80 100 100 100 100 100 100 91 100 96 92 79 85 80 77 69 71 72 66 74 76 80 83 80 72 68 74 74 75 79 81 80
37 36 42 63 86 100 100 100 100 99 100 100 100 100 100 99 84 85 87 89 74 76 76 69 70 80 85 85 84 78 72 74 77 79 80 80 73 46
46 58 72 83 95 100 100 100 100 100 98 100 100 97 100 97 84 82 89 77 76 77 74 84 88 94 91 93 87 76 78 76 77 78 74 57 36 30
65 76 86 90 95 100 100 100 100 100 100 100 98 86 83 84 82 90 80 80 82 82 91 97 95 93 88 86 83 76 75 74 71 65 38 32 28 21
89 92 99 100 100 100 100 100 100 100 93 88 91 93 99 88 85 80 84 90 87 89 93 94 94 95 94 89 82 78 73 66 44 31 30 24 19 17
100 100 100 100 100 100 96 91 87 86 86 90 90 95 97 89 86 84 88 88 92 95 97 94 91 92 93 84 77 65 40 33 31 26 21 20 18 16
100 100 100 100 100 100 100 98 97 92 88 100 93 96 90 86 88 88 87 94 96 96 91 88 87 90 91 81 63 33 35 28 22 20 18 20 20 18
98 98 97 95 94 93 89 95 96 96 96 99 99 91 91 89 90 91 96 97 97 95 89 82 82 85 75 52 48 39 24 20 18 17 19 20 20 20
100 100 99 100 100 100 100 100 100 100 96 93 92 92 92 92 98 99 97 93 92 88 83 79 78 59 43 42 40 26 20 15 16 20 23 21 23 16
100 100 99 97 94 94 92 90 93 94 92 96 97 98 96 96 96 96 89 91 88 82 69 67 48 39 39 31 22 20 18 16 16 19 22 23 22 24
98 96 93 92 94 93 92 92 96 98 100 96 91 92 92 91 96 91 90 81 65 46 43 40 40 39 24 20 18 18 17 17 17 20 19 22 18 35

GFSNE_250_rhum_069.txt.gz
RH
100 100 100 100 100 100 100 100 100 100 100 100 100 99 100 97 91 84 68 50 45 40 38 32 28 30 27 23 27 36 39 42 46 50 50 49 47 43
99 98 100 100 100 100 100 100 100 100 100 96 78 76 74 70 75 76 65 54 43 42 42 36 30 36 31 26 34 42 45 48 57 63 66 55 48 45
82 93 96 97 99 100 100 98 98 74 54 64 74 72 72 82 72 68 52 44 39 50 54 39 40 39 35 33 40 48 50 56 62 66 68 58 53 51
47 60 76 78 73 72 55 50 55 54 61 76 71 73 69 78 73 64 54 42 46 61 69 63 50 47 36 37 49 54 56 54 54 56 56 60 57 56
30 32 34 34 32 31 42 44 49 59 70 89 71 77 74 60 73 58 54 48 59 64 64 72 59 48 43 42 55 62 59 60 60 60 62 63 64 64
27 27 29 35 39 34 37 54 57 77 64 88 71 86 66 82 72 72 46 77 73 86 84 80 62 55 56 48 54 58 69 69 69 67 67 69 68 71
26 26 27 30 33 33 39 38 41 42 57 43 63 52 37 54 52 44 92 92 98 91 96 92 74 66 64 54 56 58 61 66 72 76 77 75 75 75
28 30 33 34 35 35 37 33 34 39 37 37 35 32 41 49 44 60 96 100 100 80 98 93 79 69 73 60 60 61 64 66 67 66 68 75 78 77
28 30 30 28 28 29 35 44 38 39 35 34 34 34 45 42 64 100 100 100 100 97 95 82 72 70 84 68 63 66 70 70 68 66 66 63 61 62
24 24 26 26 25 28 35 37 37 40 36 35 37 36 44 86 100 100 100 100 97 99 94 78 74 78 82 77 68 71 74 70 69 67 72 72 65 59
21 22 24 27 30 32 34 38 38 38 34 38 42 58 93 100 100 100 100 100 100 95 90 81 79 87 86 76 73 77 72 71 74 73 79 82 78 65
24 26 28 30 31 33 40 38 38 39 42 50 62 80 100 100 100 100 100 100 99 92 87 88 86 85 80 73 74 71 74 78 78 82 83 80 78 73
26 26 29 34 38 39 39 42 43 52 69 80 91 100 100 100 100 100 100 100 99 96 85 85 88 80 78 78 80 78 79 89 90 86 85 84 77 72
27 30 37 38 42 44 45 49 58 73 91 100 100 100 100 100 100 100 100 95 92 94 84 100 84 84 79 86 89 86 95 96 93 91 90 85 78 75
33 34 36 37 48 55 55 62 90 100 100 100 100 100 100 100 100 97 86 84 94 85 99 91 88 85 89 86 84 90 95 94 88 87 88 84 79 72
45 47 52 55 59 70 75 84 93 99 100 100 100 100 100 99 88 79 79 94 92 100 95 92 89 93 87 93 96 89 96 85 81 86 90 80 65 44
62 69 73 76 79 83 91 95 94 96 94 92 90 83 86 90 88 93 96 96 96 96 96 92 96 95 92 100 95 97 91 85 87 86 80 57 34 32
83 90 91 92 95 95 96 100 100 100 100 100 100 100 98 87 96 97 94 95 96 93 95 97 100 100 100 98 96 97 88 84 80 72 44 38 38 24
95 89 94 97 94 95 96 96 96 94 93 92 96 100 100 98 98 95 95 96 99 95 97 100 100 100 100 94 93 88 72 55 51 37 33 32 24 21
100 100 100 100 100 99 99 100 100 100 99 94 90 90 92 93 98 99 99 95 96 99 100 99 100 100 96 98 91 57 44 43 36 35 27 20 18 18
98 99 98 96 97 100 100 100 100 99 96 99 100 100 99 98 97 95 95 93 98 100 100 100 95 91 88 69 56 51 38 34 33 24 20 18 18 19
94 98 100 100 98 98 98 97 96 99 100 100 100 100 100 99 94 92 91 92 96 99 98 90 79 56 50 47 47 46 41 29 19 19 17 18 20 23
100 100 95 97 100 100 99 98 95 95 93 90 91 87 86 88 87 83 79 74 72 61 53 50 48 49 44 42 41 41 24 20 18 17 16 20 25 27

GFSNE_250_rhum_072.txt.gz
RH
100 99 100 100 99 90 94 96 90 99 94 100 100 100 100 97 94 78 54 60 52 53 62 57 54 44 32 35 38 43 38 30 36 43 49 51 56 58
90 65 49 63 70 70 61 70 82 89 93 82 63 60 64 52 51 49 62 68 59 66 62 56 51 41 43 47 50 50 44 35 44 49 56 59 61 57
30 31 31 32 32 35 37 35 43 43 35 32 32 36 45 48 49 59 60 62 57 65 54 51 50 49 57 64 62 58 50 41 46 58 56 58 58 54
26 26 27 29 29 29 30 29 32 30 28 28 29 35 45 51 49 47 48 51 53 48 39 44 59 52 70 79 70 65 57 48 47 56 63 61 59 60
25 24 25 28 30 30 30 31 32 32 32 31 31 34 35 38 39 43 42 48 36 45 37 64 82 68 76 84 76 80 64 55 49 51 57 67 70 66
28 28 27 26 26 28 28 30 30 30 31 31 34 36 39 38 39 44 43 44 49 38 45 75 87 82 98 86 84 87 64 60 63 57 57 64 68 79
27 28 28 29 30 29 28 30 32 34 35 33 36 40 38 40 37 40 39 40 38 43 66 73 90 92 82 85 92 86 70 65 64 65 61 62 66 68
28 27 26 28 27 25 26 29 30 33 36 35 36 32 31 35 42 40 42 41 41 57 68 100 100 99 87 84 88 92 77 68 68 64 63 68 68 67
27 27 27 27 27 23 22 24 25 26 26 26 28 31 37 39 40 44 45 44 49 61 100 100 100 92 90 99 83 92 78 75 74 69 66 72 67 62
20 18 18 19 20 20 20 22 22 22 23 25 28 34 33 36 39 42 47 58 78 100 100 100 100 86 91 93 92 93 82 83 75 74 73 72 69 63
18 17 18 18 19 21 21 22 24 23 25 30 32 30 33 42 46 55 66 90 99 100 100 100 100 96 94 83 93 98 92 88 77 78 80 78 79 79
18 18 19 19 20 20 22 25 26 31 35 37 37 44 54 59 63 77 87 91 100 100 100 100 100 100 95 86 97 90 85 81 84 80 80 87 93 91
22 22 22 22 23 25 26 28 32 38 42 46 56 61 68 82 89 96 100 100 100 100 100 98 96 95 88 89 100 96 88 87 84 82 85 92 94 88
24 24 25 28 29 31 32 35 39 48 55 63 70 79 90 95 100 100 100 100 100 97 98 95 88 90 90 98 100 95 86 89 85 81 91 100 96 89
27 29 32 34 35 40 47 53 59 66 76 86 91 94 98 100 100 100 100 88 90 89 92 90 97 100 100 100 99 92 92 91 84 90 100 98 95 90
41 42 44 48 50 54 60 68 78 86 93 94 94 97 98 100 100 99 97 95 95 98 100 100 100 100 100 100 97 89 88 83 88 97 99 93 90 91
60 61 74 78 81 83 88 92 93 94 95 96 100 100 100 99 100 100 100 100 100 100 100 100 100 100 98 95 93 90 89 87 88 91 99 97 91 87
73 71 74 82 89 93 93 94 96 100 100 100 100 100 100 99 99 98 97 96 98 100 99 99 99 98 100 98 95 92 90 91 90 94 96 100 80 48
93 95 94 97 99 100 100 100 100 100 100 100 100 100 100 100 100 100 100 98 92 91 97 100 98 98 100 100 93 92 95 94 98 95 96 66 61 47
98 98 98 99 98 98 98 97 99 100 99 98 95 96 100 99 96 95 97 98 99 95 90 92 98 100 100 100 98 91 91 93 89 70 53 53 48 42
97 92 92 98 99 98 100 99 98 96 93 93 96 97 96 99 100 96 96 97 100 100 98 94 97 98 100 98 93 79 66 62 58 52 47 43 40 39
100 98 99 100 100 100 100 99 99 97 98 100 100 100 100 100 97 94 91 90 84 82 80 74 68 66 72 76 74 61 48 49 53 52 42 39 34 24
99 100 100 100 100 99 100 100 100 100 100 97 92 82 74 75 65 56 54 49 47 49 50 50 52 55 53 55 52 51 55 44 37 39 36 23 20 18

GFSNE_250_rhum_075.txt.gz
RH
100 100 100 100 100 100 100 99 91 94 83 50 34 35 37 40 40 37 41 35 34 35 39 48 42 41 47 43 45 38 45 52 46 60 50 39 41 53
100 100 100 100 100 89 76 54 42 39 44 34 31 31 33 34 34 36 34 34 34 35 36 41 42 42 43 49 43 40 54 73 63 66 56 47 42 52
100 100 86 66 44 39 32 31 32 31 28 28 29 28 30 33 34 35 34 37 36 37 39 41 42 44 46 46 42 48 75 77 80 72 63 54 50 49
67 49 36 30 29 28 25 25 26 28 26 27 28 28 29 31 33 34 35 36 40 39 42 41 44 43 48 48 45 66 90 92 86 79 69 62 56 52
28 24 24 24 27 24 24 26 27 27 27 27 28 30 33 33 35 37 38 39 41 42 43 45 43 46 49 42 61 75 100 95 79 74 78 74 62 56
34 35 35 33 32 31 29 28 29 29 30 29 30 32 33 34 36 38 37 38 39 42 41 37 42 55 46 50 67 99 95 100 92 78 82 83 64 62
33 34 33 32 29 27 25 24 24 26 27 28 28 24 24 27 28 27 29 34 36 34 36 41 48 50 48 58 77 100 100 100 94 94 85 86 73 67
29 28 28 27 26 25 27 28 26 24 21 24 23 19 20 20 22 25 27 26 26 30 36 44 46 50 56 82 100 100 100 100 100 93 89 91 83 76
30 29 29 29 27 23 20 19 19 18 18 18 19 18 20 22 23 24 24 27 32 42 48 49 52 60 82 98 100 100 100 100 96 93 92 99 84 80
21 21 20 19 19 18 17 17 16 16 17 18 20 20 22 24 27 28 35 36 44 47 52 56 71 87 96 100 100 100 100 96 98 94 95 100 94 86
19 19 19 19 18 17 18 16 17 18 20 23 23 26 29 35 35 39 48 55 56 55 63 71 89 96 100 100 100 100 99 92 95 97 99 100 90 90
24 23 22 23 23 20 22 23 23 24 26 27 29 33 41 44 44 56 62 68 74 83 92 90 96 100 100 100 100 100 95 94 100 100 100 95 87 88
30 30 28 28 25 24 24 24 25 26 28 31 33 36 43 51 70 82 86 89 95 97 97 100 100 100 100 100 94 93 99 100 99 100 98 90 94 92
32 36 36 29 26 26 26 28 30 32 34 37 42 52 62 69 74 82 89 91 99 98 97 94 92 91 88 95 100 100 100 100 100 98 96 100 95 90
49 46 41 39 35 32 33 36 41 48 54 64 67 77 84 89 95 100 100 100 100 97 94 99 100 100 100 100 100 99 100 100 97 95 100 97 94 90
67 63 60 60 49 50 52 58 59 62 76 90 93 99 100 100 100 100 100 100 100 100 100 100 100 100 100 100 97 94 93 99 100 100 100 95 94 83
72 72 78 75 72 73 74 76 80 83 86 89 94 96 98 99 100 100 100 100 99 100 100 100 100 97 99 100 98 89 94 95 96 100 100 94 82 82
78 77 79 86 87 88 93 95 94 99 100 100 100 100 100 100 100 100 100 100 98 98 98 98 97 96 98 100 100 92 93 91 92 93 92 97 88 91
78 88 90 88 86 92 96 99 100 100 99 98 98 100 100 100 100 99 100 100 100 100 100 100 100 100 100 100 93 93 87 87 94 91 93 97 98 82
92 97 99 94 90 92 92 89 94 100 98 95 92 94 97 97 92 90 92 91 90 90 89 86 81 80 79 80 85 84 82 83 85 84 76 80 83 69
97 96 99 100 100 97 94 98 98 97 99 100 98 99 99 93 93 98 97 95 94 93 88 83 78 73 70 65 64 66 60 58 62 64 61 67 65 67
96 97 100 100 100 100 100 100 98 98 97 97 97 98 98 100 100 97 93 86 84 83 78 66 57 55 50 44 43 44 45 45 47 54 54 51 50 49
97 100 100 100 100 100 100 99 98 93 95 100 100 100 100 95 85 76 72 72 70 64 53 43 38 36 35 34 35 35 37 37 39 42 41 41 44 45

GFSNE_250_rhum_078.txt.gz
RH
87 100 100 100 100 98 83 88 100 99 100 100 99 100 82 45 33 31 31 31 31 32 33 34 34 37 38 41 42 43 50 46 54 49 46 61 64 57
86 88 95 96 100 100 97 86 97 100 98 76 72 65 39 34 34 32 32 31 32 33 36 35 36 37 40 41 44 47 52 54 58 47 57 69 70 67
100 100 100 100 100 100 100 100 100 92 71 51 38 31 30 28 31 32 30 33 34 35 37 35 37 39 39 42 42 56 62 55 66 52 68 85 83 72
100 100 100 82 95 100 86 72 64 57 32 34 28 30 30 30 30 31 30 32 33 35 36 37 37 38 37 36 46 58 56 61 68 61 82 94 86 74
100 99 92 86 68 73 92 40 33 31 31 31 29 27 27 27 28 29 30 30 31 30 31 31 31 30 31 38 47 48 56 70 66 74 96 97 99 88
60 61 93 93 54 42 40 35 36 31 29 28 27 27 27 28 30 30 27 23 22 24 25 25 25 29 29 38 41 48 59 74 74 84 100 100 100 89
78 64 49 40 40 44 39 33 34 32 30 30 27 26 25 25 23 20 20 20 20 20 21 23 26 31 31 39 47 64 72 72 86 99 100 100 100 95
44 41 41 40 35 37 38 33 33 32 29 29 22 19 18 17 18 19 18 19 22 22 22 28 28 32 41 48 57 64 68 86 99 100 100 100 100 91
41 42 41 40 38 36 34 30 25 21 16 15 16 16 17 18 20 22 20 24 26 26 30 30 36 43 51 60 64 72 87 98 100 100 100 100 100 97
35 35 33 31 27 21 18 17 16 16 16 16 18 21 22 23 26 27 29 30 31 35 39 42 48 54 63 68 76 93 100 100 100 100 100 100 99 100
23 21 19 18 19 20 18 18 19 20 20 20 23 24 26 28 30 33 37 39 42 48 59 62 65 70 75 80 88 100 100 100 100 100 100 100 96 100
18 18 20 23 24 24 26 25 22 22 23 23 23 25 26 27 30 35 39 44 48 58 75 85 87 84 86 89 92 94 95 100 100 100 98 100 100 100
25 26 29 31 30 30 27 26 26 26 24 26 26 28 29 33 39 43 50 59 70 89 86 90 90 89 90 91 96 100 100 100 100 100 100 100 100 100
34 32 32 35 37 36 36 37 35 33 33 33 36 38 46 51 56 59 69 81 89 98 100 100 94 90 87 93 97 99 100 100 100 100 100 100 100 100
37 37 46 50 62 61 60 53 49 46 49 52 49 55 64 68 75 86 93 96 98 100 100 100 100 100 100 100 100 100 100 100 100 100 100 92 87 94
56 54 45 52 75 86 78 68 62 64 65 71 74 76 76 76 78 81 83 82 85 92 95 100 100 100 99 95 90 86 90 93 93 93 97 98 96 93
40 34 36 60 81 90 83 76 75 83 82 87 91 92 90 86 87 93 94 97 99 100 99 96 94 95 95 94 93 90 94 100 100 100 100 96 92 90
32 30 50 64 83 96 87 84 84 85 84 85 88 90 95 99 100 100 100 100 100 100 100 100 100 100 100 100 98 95 91 89 88 91 93 98 94 92
38 43 62 71 86 89 93 95 99 98 95 97 99 100 97 99 100 100 100 100 100 100 100 100 97 95 96 95 91 90 86 83 82 80 81 83 84 83
48 58 74 83 90 90 89 94 96 94 94 94 92 90 90 93 96 93 94 97 99 96 98 99 92 90 88 92 92 81 76 69 63 60 55 53 58 59
59 66 84 90 96 98 100 100 98 98 95 92 91 94 98 95 95 100 100 100 100 100 97 92 90 89 85 83 81 73 56 52 48 47 38 36 39 44
73 80 84 96 100 100 100 100 100 98 95 98 98 98 98 99 100 100 100 100 100 100 97 88 82 84 78 68 61 51 42 39 35 30 28 32 35 37
87 90 85 99 100 100 100 100 99 94 90 93 99 100 96 100 100 100 100 100 100 93 85 81 75 58 45 38 36 30 29 32 32 28 24 27 33 38

GFSNE_250_rhum_084.txt.gz
RH
100 100 100 100 100 100 100 100 100 100 100 100 76 39 70 79 100 89 100 100 100 100 82 63 66 59 47 46 46 47 49 46 42 43 45 40 40 47
100 100 100 100 100 91 100 100 81 96 61 76 96 76 80 100 90 100 100 92 96 63 57 56 42 41 42 44 49 46 46 47 45 44 46 48 40 46
100 100 89 89 100 100 99 90 70 95 92 100 100 100 100 100 100 97 86 89 64 53 69 42 35 30 31 35 33 31 34 37 37 40 40 41 38 45
95 100 100 100 100 94 99 100 99 100 99 90 98 100 88 75 99 66 71 50 50 55 39 26 23 23 20 20 21 24 26 29 32 33 35 38 36 44
100 100 100 100 100 100 100 100 100 100 43 97 100 97 66 70 72 61 55 37 49 28 20 18 18 16 17 19 20 22 23 26 29 29 31 32 39 48
100 100 100 98 100 93 90 77 88 89 100 85 80 83 97 57 51 50 50 33 22 18 16 15 16 16 18 21 25 27 32 32 32 32 34 35 41 51
100 100 100 96 79 70 82 67 100 100 73 91 72 82 68 46 72 34 27 20 16 15 16 16 18 20 22 23 28 36 40 42 40 37 37 43 54 67
100 100 93 66 50 57 100 100 75 84 62 85 76 45 58 54 29 26 16 17 17 16 17 19 20 20 22 26 32 40 44 50 50 48 52 60 68 82
100 93 77 100 100 98 61 68 75 80 80 72 68 57 29 32 22 19 16 16 18 21 21 20 19 21 24 28 37 47 55 58 62 64 71 82 89 100
100 90 98 82 93 93 95 91 74 78 68 65 36 28 25 22 18 17 18 22 22 24 26 25 23 24 27 34 43 53 58 68 74 84 94 94 96 100
100 100 100 99 100 92 71 71 72 79 57 32 28 23 20 19 19 20 24 26 35 35 30 26 28 30 34 42 55 67 77 89 94 100 100 100 100 100
100 93 94 89 76 75 79 78 45 32 29 26 21 19 21 22 24 25 39 49 46 36 30 30 30 37 40 58 67 73 84 93 98 100 100 100 100 100
91 98 100 88 76 82 54 34 31 28 22 21 20 22 24 28 28 38 51 59 50 40 39 39 46 53 64 82 84 85 98 100 100 100 100 100 100 100
98 97 90 62 42 34 31 28 23 22 22 23 25 26 30 33 43 42 67 65 62 62 55 59 65 69 86 85 89 92 99 97 97 99 100 100 100 100
54 36 34 32 29 26 24 22 24 27 26 28 28 31 40 45 44 56 72 74 72 80 77 79 89 84 80 90 97 99 99 99 100 98 97 97 99 100
30 29 29 30 28 26 28 29 32 31 32 32 36 51 45 37 45 78 78 81 78 80 80 86 91 94 96 98 99 99 99 98 99 100 100 100 100 98
32 41 40 41 37 33 36 40 38 38 38 47 60 48 35 41 76 91 83 84 90 92 94 96 100 100 100 100 99 99 99 100 100 100 100 100 98 96
56 52 48 52 49 51 51 48 49 46 63 68 55 42 41 68 85 88 84 91 96 95 93 94 95 95 93 91 92 95 96 99 100 99 99 98 95 97
67 58 69 71 68 68 67 71 74 80 86 62 48 46 70 85 91 92 96 98 98 96 94 93 97 99 92 94 96 92 93 96 96 96 97 98 97 90
72 68 81 84 82 91 94 96 96 96 86 64 56 72 81 89 95 100 100 98 96 97 98 97 96 92 94 88 87 88 89 86 86 90 91 90 94 91
89 91 94 93 99 100 100 100 98 97 84 78 76 86 90 98 99 100 100 100 100 100 98 95 95 95 93 89 85 81 81 89 91 90 85 84 80 71
88 96 100 100 100 100 100 100 99 95 91 87 87 89 90 95 99 100 98 100 100 99 94 91 92 94 95 89 84 89 89 84 79 78 75 68 61 44
87 99 99 100 100 100 100 100 98 92 98 95 88 86 95 100 100 100 99 98 98 93 83 85 90 93 90 94 98 97 93 85 81 75 66 57 42 38

GFSNE_250_rhum_087.txt.gz
RH
99 100 70 76 100 100 91 85 100 100 100 93 100 93 100 100 100 78 100 100 75 100 92 92 100 99 62 67 38 30 24 24 25 27 28 33 37 38
91 93 87 78 96 94 97 90 100 90 90 100 100 100 96 93 100 99 97 79 100 92 69 93 96 53 63 44 26 25 19 20 20 21 23 25 32 36
100 86 100 100 100 100 98 100 100 100 92 100 100 66 62 100 99 100 100 100 75 72 84 96 58 73 40 34 22 18 17 18 18 20 23 26 28 33
100 100 100 100 100 100 100 100 100 100 84 100 53 96 100 100 100 100 90 75 80 100 100 99 75 38 23 22 15 15 15 16 19 23 28 31 30 31
100 100 98 100 100 100 99 100 100 97 84 84 100 100 97 100 100 67 87 100 51 100 64 60 46 34 16 15 15 14 17 20 26 27 31 37 41 40
100 100 100 100 100 100 100 98 80 83 98 100 99 75 97 79 78 98 83 77 65 86 68 54 26 19 16 14 15 18 21 22 23 26 31 41 48 48
100 100 100 100 100 94 93 100 100 76 100 99 100 88 75 62 41 75 79 93 57 67 60 26 20 16 15 16 19 20 20 20 23 28 38 49 55 53
100 100 100 100 100 100 100 100 100 100 100 90 100 78 47 46 71 78 60 67 66 59 54 22 17 17 18 19 21 20 19 22 28 35 47 58 64 65
100 100 100 100 100 100 95 98 100 100 98 100 100 59 50 88 70 68 73 67 67 37 22 18 19 20 23 27 25 21 23 25 30 39 52 61 70 77
100 100 100 100 100 97 100 100 100 96 100 88 90 59 99 96 86 67 64 70 43 22 19 20 23 26 31 30 25 25 26 28 35 46 56 67 80 86
100 100 100 100 98 100 100 98 98 95 94 78 61 97 98 70 75 70 65 66 24 18 22 24 29 36 36 29 28 30 36 40 49 60 75 86 93 98
96 100 100 98 71 57 84 80 94 97 97 100 84 93 78 66 64 54 35 22 19 22 27 34 37 43 37 34 33 36 58 71 77 86 90 96 92 97
79 79 72 69 66 83 90 96 98 100 100 85 99 100 86 61 50 29 22 21 24 26 38 39 46 48 44 44 49 52 58 68 77 88 100 100 100 100
100 99 98 100 100 100 100 95 93 97 98 93 86 80 77 34 25 21 23 26 31 38 40 47 57 53 56 54 56 65 69 78 86 96 100 99 99 100
95 95 100 100 100 100 99 91 94 97 94 80 71 36 26 25 22 23 27 32 44 42 35 61 68 64 68 64 64 73 79 87 91 98 100 99 99 99
86 86 88 83 88 95 88 86 76 67 52 37 29 26 28 28 28 29 31 53 48 38 49 67 73 68 72 76 83 85 89 89 92 97 99 99 100 99
24 29 32 30 34 38 40 42 41 47 41 36 39 36 34 35 38 36 55 59 42 46 67 77 73 76 79 81 86 86 84 89 92 92 90 88 87 89
28 26 31 36 39 45 48 57 65 63 60 60 51 43 46 46 50 65 64 46 46 73 81 86 87 90 91 94 98 97 98 98 95 95 96 98 98 97
33 36 42 53 60 64 75 76 75 73 84 68 59 60 61 64 82 79 58 54 82 85 90 96 97 91 94 98 96 94 95 96 96 94 95 96 93 95
44 47 46 55 66 84 92 96 90 88 88 81 76 78 84 85 95 85 74 78 88 91 97 99 97 95 91 90 92 99 99 97 97 98 95 96 96 91
55 60 58 66 80 88 93 98 93 100 96 97 93 94 100 99 97 90 91 91 93 96 99 100 98 94 91 91 96 99 98 99 99 97 95 90 85 83
51 56 62 73 86 92 98 95 95 100 99 100 100 100 100 99 97 99 97 97 92 91 98 100 96 96 97 96 98 96 94 89 88 88 88 91 91 89
39 50 58 76 88 94 100 99 98 100 100 100 100 100 100 100 100 100 100 100 100 100 97 100 100 100 99 96 96 94 92 88 86 84 87 92 94 90

GFSNE_250_rhum_090.txt.gz
RH
100 91 89 100 95 100 87 63 74 42 61 76 73 78 74 92 99 99 78 100 76 100 100 100 100 100 100 81 86 47 58 65 20 19 14 15 16 18
100 100 100 100 98 79 93 76 78 86 98 100 100 100 100 100 96 96 96 98 100 84 73 100 100 100 87 94 77 66 45 42 20 14 14 16 17 22
100 100 100 100 97 100 100 100 100 100 100 100 100 92 99 92 100 99 95 96 78 84 97 100 100 96 82 92 51 62 39 32 19 14 14 17 20 28
100 100 77 88 100 71 100 100 100 100 94 100 88 100 100 90 82 86 100 89 89 95 100 100 92 87 82 63 46 39 21 22 14 14 17 18 22 32
70 89 90 92 94 92 88 97 100 100 100 100 78 81 100 100 100 100 87 92 100 100 100 99 75 84 69 44 53 45 18 14 14 16 20 20 22 28
100 100 100 94 100 100 100 100 100 98 100 100 100 88 98 100 100 88 91 100 100 84 90 80 93 66 40 52 42 31 16 15 15 19 22 19 21 24
100 100 100 100 100 100 100 98 100 100 100 100 100 100 100 89 98 96 100 100 100 76 91 87 48 80 79 45 31 16 14 16 19 24 22 20 22 25
100 100 100 100 100 100 100 100 93 100 100 100 100 100 100 100 100 99 100 88 100 100 92 60 73 71 70 46 39 16 17 19 24 24 20 21 24 29
100 100 100 100 100 100 100 100 100 100 100 100 100 100 100 88 93 100 80 100 76 84 69 68 92 64 56 26 22 18 20 24 27 22 21 23 28 35
100 100 100 100 100 100 100 100 100 100 100 100 100 100 100 100 100 99 93 87 87 76 80 91 88 56 35 17 20 22 26 28 27 24 24 31 36 45
100 100 100 100 100 100 100 100 100 100 100 100 100 100 100 100 93 78 57 66 82 90 100 87 81 33 18 19 23 26 30 33 28 28 32 44 55 65
92 94 100 100 100 100 100 100 100 90 93 100 100 97 94 89 87 81 100 92 99 99 94 77 62 21 22 23 30 31 36 37 37 37 41 51 68 72
100 100 100 100 100 100 100 100 100 100 100 100 95 100 99 81 97 99 97 96 95 86 62 45 23 22 27 33 32 36 43 43 50 48 62 60 65 79
100 100 95 95 100 100 100 100 100 98 100 100 100 100 84 87 95 100 100 89 80 81 30 24 25 27 39 41 32 43 52 50 55 64 74 81 71 80
100 99 100 87 100 100 92 89 98 100 93 98 93 100 94 99 88 92 94 41 33 29 27 29 32 39 50 38 43 59 60 62 63 68 72 93 95 95
81 72 95 91 99 95 86 75 71 78 74 67 90 77 91 87 65 40 35 33 31 31 34 39 45 54 52 43 62 69 70 73 75 74 77 80 88 93
34 26 44 65 74 72 67 59 38 32 31 38 42 47 48 39 44 50 47 43 38 42 49 52 63 61 48 62 73 76 78 78 84 86 85 86 86 86
24 23 23 24 25 28 24 24 34 36 42 44 49 53 48 65 68 68 63 61 54 61 68 75 69 56 66 76 85 88 90 92 91 89 88 88 87 84
21 25 26 27 26 28 28 31 39 45 54 60 67 63 70 82 79 89 88 80 79 87 93 90 71 68 77 88 98 100 100 98 95 97 98 96 92 93
16 26 30 31 31 28 44 48 52 71 72 74 79 82 88 90 100 100 100 95 96 98 98 93 82 81 83 95 98 100 100 100 100 97 99 100 98 95
8 13 16 24 30 35 36 61 75 85 83 84 90 92 94 100 100 100 100 100 100 100 99 94 92 93 91 95 100 100 100 100 99 100 100 98 97 92
7 9 9 13 20 24 34 79 83 88 91 92 91 99 100 100 100 100 100 100 100 100 100 98 98 99 98 97 100 100 100 99 100 100 100 100 97 94
6 8 8 11 16 22 40 77 90 86 87 94 99 100 100 100 100 100 100 100 100 100 100 99 99 100 100 100 100 100 100 98 97 100 100 98 95 94

GFSNE_250_rhum_093.txt.gz
RH
100 100 100 100 100 100 99 100 100 100 100 96 82 68 64 68 68 46 45 63 65 100 97 68 65 88 82 98 85 96 100 100 100 100 84 38 30 17
97 100 100 100 100 100 100 100 100 89 90 84 98 100 83 70 70 76 74 64 77 87 67 78 81 99 100 82 98 100 100 98 89 69 67 35 21 15
100 100 100 100 98 100 100 100 100 99 100 100 100 99 100 93 70 63 70 74 82 100 79 76 99 95 95 89 100 100 100 100 72 48 38 20 14 15
100 100 96 86 95 72 82 86 87 86 100 100 99 91 96 77 49 72 69 91 100 93 100 95 87 75 85 100 100 100 80 66 65 50 40 17 15 15
99 81 93 77 74 100 75 84 76 66 77 98 85 76 92 94 72 91 90 90 76 93 96 100 85 100 100 100 99 95 77 71 55 40 34 18 15 15
78 96 99 87 97 100 86 64 54 88 91 100 74 93 100 96 96 100 86 98 96 93 85 80 100 100 100 100 100 77 61 80 58 37 22 17 15 18
96 82 99 94 89 98 99 78 78 100 91 100 100 100 100 100 100 89 100 76 99 88 98 100 100 100 65 71 97 69 68 81 63 52 16 15 17 21
100 100 100 100 100 98 100 100 100 93 100 100 100 100 100 100 100 100 100 100 100 100 100 89 100 95 98 82 82 70 100 80 68 35 19 16 20 23
100 100 100 100 100 100 100 100 100 100 100 100 90 100 95 100 99 100 100 100 100 100 79 98 99 84 84 86 79 84 97 68 55 20 20 18 23 24
100 100 100 100 100 100 100 100 100 100 100 100 100 100 100 100 100 100 100 97 100 100 70 89 97 89 89 76 100 85 91 36 22 21 22 24 27 24
99 100 100 100 100 100 100 100 100 100 100 100 100 100 100 100 100 100 98 99 100 100 92 98 100 99 77 88 88 72 45 22 22 23 26 28 32 26
94 94 100 92 92 99 100 100 91 100 87 100 99 97 100 100 100 100 100 100 100 100 100 100 99 86 97 59 63 37 23 25 26 28 32 34 37 31
100 100 100 100 100 100 100 100 100 100 100 100 100 100 100 100 100 100 100 100 99 98 100 98 98 78 59 43 37 31 28 33 31 38 40 42 42 37
100 100 100 100 100 100 100 100 100 100 100 100 100 100 100 100 100 100 100 100 100 100 100 100 87 55 35 34 39 36 42 40 39 45 53 55 50 48
99 100 100 100 100 100 100 100 100 100 100 100 100 100 100 100 100 100 100 100 100 87 85 93 50 37 38 45 45 48 56 52 53 50 63 62 59 64
62 62 62 82 76 94 89 95 100 100 100 100 98 100 100 100 100 86 82 78 64 81 51 39 46 43 49 55 56 60 67 61 60 61 66 66 66 70
26 28 38 47 56 41 47 61 71 74 54 48 64 64 79 80 63 41 44 56 50 52 50 56 65 62 63 69 71 74 71 64 69 77 80 78 74 75
18 21 26 25 25 26 31 27 24 26 42 62 70 73 50 35 36 47 56 67 61 65 67 80 81 81 82 86 82 82 74 69 80 91 90 84 83 86
8 14 20 22 24 25 23 23 28 33 38 41 55 50 41 47 55 62 81 72 82 90 95 94 98 96 96 100 95 94 83 86 91 96 97 92 87 86
4 5 7 11 13 18 24 29 32 36 41 48 54 59 66 72 78 82 85 95 99 100 98 100 100 100 98 99 100 100 93 94 95 95 95 96 98 98
4 5 5 7 10 14 19 24 32 36 36 49 74 78 69 87 90 97 100 100 100 100 98 98 100 98 96 98 100 100 99 100 100 100 98 98 98 96
5 5 6 6 8 10 14 17 23 30 46 57 61 74 81 94 98 100 100 100 100 100 95 100 100 99 97 96 100 100 100 100 100 97 94 92 92 96
6 6 6 6 7 8 9 11 14 27 43 44 53 79 88 100 98 100 100 100 100 100 99 100 100 100 100 99 100 100 100 100 100 100 100 98 97 96

GFSNE_250_rhum_096.txt.gz
RH
100 100 98 72 100 100 100 93 100 94 91 69 90 67 82 78 73 75 70 47 54 65 71 74 47 49 53 58 52 68 70 73 99 93 100 100 99 61
100 100 100 100 81 91 100 100 94 100 100 92 79 72 88 100 98 88 75 57 54 56 72 77 37 54 67 68 59 67 66 84 94 100 88 86 100 61
100 100 100 100 100 100 98 100 92 97 95 100 100 100 100 100 98 87 78 64 61 81 87 98 37 36 58 73 80 84 86 100 100 100 100 60 74 65
86 100 92 100 100 100 100 100 100 100 100 100 100 100 100 100 99 80 87 73 66 67 68 55 43 42 62 86 80 95 100 100 100 91 100 73 70 51
92 99 100 100 84 86 97 100 100 100 100 100 100 100 100 79 75 62 80 83 58 85 65 55 56 64 59 73 80 98 100 100 84 69 78 83 62 55
100 100 100 100 100 100 100 100 100 100 95 82 79 75 75 66 53 70 72 86 91 79 63 100 88 82 82 100 100 100 88 97 89 92 100 78 60 55
100 100 100 99 98 99 100 100 95 81 66 74 61 55 86 69 56 78 93 80 94 100 100 99 90 92 100 100 100 68 88 88 87 90 96 78 56 39
100 100 100 100 100 100 96 81 88 80 69 74 67 75 54 85 73 85 97 100 95 100 100 91 100 100 100 100 99 81 100 100 90 93 98 80 51 20
100 99 100 100 90 99 100 100 97 100 98 100 95 99 95 89 100 100 100 100 100 100 100 100 100 100 100 94 97 100 98 100 100 94 94 72 43 21
100 100 100 100 98 100 100 100 100 100 100 100 100 100 100 100 100 100 100 100 100 100 100 97 100 100 100 100 98 91 97 100 93 87 75 53 29 24
100 100 100 100 100 100 100 100 100 100 100 100 100 100 100 100 100 100 100 100 100 100 98 100 100 100 100 100 100 100 99 97 89 66 37 25 28 29
100 100 100 100 100 100 100 100 100 100 100 100 100 100 100 100 100 100 100 100 100 100 100 100 100 100 100 100 100 100 100 92 65 34 28 30 38 38
100 100 100 100 100 100 100 100 100 98 100 100 100 100 100 100 100 100 100 100 100 100 100 100 98 100 100 100 100 88 94 72 33 29 34 42 46 48
70 87 100 98 100 100 100 100 100 100 100 100 100 100 100 100 100 100 100 100 100 100 100 100 100 93 100 98 87 100 66 34 36 41 49 49 57 58
46 57 69 74 68 65 95 100 100 100 100 100 100 100 100 100 100 100 100 100 100 100 100 86 69 87 98 99 88 51 37 41 55 58 66 61 68 71
26 30 38 41 49 57 72 98 99 100 100 100 100 100 100 100 100 100 94 73 75 84 71 55 78 79 99 61 47 41 46 63 70 73 77 73 76 74
17 19 23 25 25 23 34 56 65 69 75 86 96 99 99 92 83 72 68 61 61 46 51 59 73 94 71 55 49 60 68 84 82 88 90 86 84 78
5 10 15 16 16 18 20 21 29 35 54 76 76 78 86 79 68 63 61 54 41 49 52 58 70 79 66 61 72 83 90 96 92 95 99 91 90 89
3 4 4 5 8 12 18 19 30 38 42 50 58 58 60 52 50 56 53 47 39 48 54 61 87 78 67 83 91 95 100 100 99 100 100 100 96 100
3 3 4 4 5 7 10 15 25 31 33 33 38 39 41 45 44 45 45 41 57 54 66 89 97 82 96 97 91 100 100 100 98 100 100 100 100 100
5 5 5 5 5 5 5 6 8 10 16 22 26 28 31 36 46 52 58 57 68 78 86 92 85 100 97 84 90 100 100 100 99 99 100 100 100 100
6 7 7 6 6 6 5 6 7 8 9 11 13 18 29 40 52 58 77 87 82 94 100 90 100 100 95 87 90 99 100 100 100 100 100 100 100 100
6 7 8 8 8 8 6 6 6 7 9 11 14 19 28 45 60 70 68 79 90 98 95 100 100 100 100 97 96 99 100 100 100 100 100 100 100 100

GFSNE_250_rhum_099.txt.gz
RH
100 100 100 97 93 100 100 96 96 94 100 99 76 90 99 73 76 75 89 82 100 100 64 75 85 80 67 48 88 40 47 58 68 60 72 72 100 100
95 97 92 100 76 100 100 94 76 65 67 90 84 100 88 84 86 94 91 100 78 96 94 100 100 89 67 73 46 47 59 60 78 74 74 96 100 100
100 100 100 100 100 99 97 100 95 87 86 94 100 100 100 100 100 100 100 100 93 100 100 91 77 77 69 53 54 40 98 68 95 87 89 100 100 93
100 100 100 100 100 100 100 100 100 100 100 100 100 100 100 100 99 100 99 99 100 100 99 100 86 85 60 54 42 80 45 73 95 96 100 100 96 85
100 100 98 100 100 100 97 100 100 100 100 100 100 100 100 100 100 100 88 90 100 100 100 96 82 66 60 64 49 63 54 57 88 96 100 100 96 74
100 100 100 100 100 100 100 100 100 100 100 100 100 100 100 100 85 100 100 100 100 100 100 80 69 56 48 68 69 82 99 100 100 100 97 78 82 75
100 100 100 100 100 100 100 100 100 98 90 96 96 80 74 84 100 99 100 97 100 95 77 65 50 49 76 73 81 100 100 100 100 90 100 100 95 100
100 100 100 100 100 100 100 98 100 100 99 98 100 100 77 100 100 75 61 85 76 62 77 61 73 98 98 100 100 100 100 100 100 94 80 75 100 100
100 100 100 100 100 100 100 100 100 98 89 100 100 100 94 70 67 95 79 76 78 100 94 94 97 100 100 100 100 100 100 100 100 92 97 100 100 78
100 100 100 100 100 100 100 100 100 100 100 100 100 100 100 100 100 100 100 90 98 100 100 100 100 100 100 100 100 100 100 100 100 100 100 100 98 70
100 100 100 100 100 100 100 100 100 100 100 100 100 100 100 100 100 100 100 100 100 100 100 100 100 100 100 100 100 99 100 100 100 100 98 100 79 65
100 100 100 100 100 100 100 100 100 100 100 100 100 100 100 100 100 100 100 100 100 100 100 100 100 100 100 100 97 100 100 100 100 86 85 77 65 52
100 100 100 100 100 100 100 98 100 98 78 100 100 100 100 100 100 100 100 100 100 100 100 100 100 100 100 100 100 97 100 100 92 72 75 65 64 40
64 81 86 94 100 100 100 100 100 96 100 100 100 100 100 100 100 100 98 100 100 100 100 100 100 100 100 100 99 100 89 100 80 72 66 58 51 37
39 41 48 53 49 55 78 100 100 100 100 100 100 100 100 100 100 100 100 100 100 100 100 100 100 100 100 98 94 86 100 94 70 67 58 50 43 49
28 34 40 42 40 48 53 51 57 75 82 93 95 99 100 100 100 100 100 100 100 99 100 99 100 100 97 96 86 98 96 76 78 63 57 48 46 63
4 10 18 24 28 32 36 37 48 42 53 67 78 76 72 78 99 100 100 100 100 100 100 100 98 95 86 79 82 94 79 74 78 61 53 51 64 76
4 3 4 4 8 14 21 26 21 26 38 31 42 40 49 77 76 80 90 98 92 97 95 97 84 81 69 76 80 78 72 80 76 60 59 73 80 91
4 4 4 4 4 4 4 5 7 16 18 23 30 36 47 51 50 50 56 61 58 63 76 67 73 70 65 72 77 71 86 89 73 64 83 92 89 99
3 3 4 4 5 5 5 5 5 6 7 12 20 29 31 33 38 42 47 49 52 54 56 57 65 66 66 74 82 85 85 85 79 84 99 96 93 98
2 3 4 4 5 5 6 6 5 5 6 6 8 10 19 21 33 38 42 42 48 48 56 62 61 69 75 80 84 90 92 93 94 98 98 100 94 96
2 3 4 4 5 5 6 6 6 5 5 5 7 9 12 14 20 27 33 37 38 47 56 62 68 72 86 96 96 97 100 100 100 99 100 100 94 97
2 3 3 4 5 6 6 7 7 7 7 6 7 8 10 10 16 24 28 31 39 43 50 59 78 93 94 100 100 100 100 100 100 100 100 100 97 100

GFSNE_250_rhum_102.txt.gz
RH
87 100 100 100 100 100 100 100 100 100 99 83 100 100 97 100 100 100 100 98 100 62 93 100 92 100 100 83 79 69 78 90 99 81 68 60 41 57
100 99 100 100 100 100 100 100 100 100 95 100 90 100 66 68 100 97 100 75 73 82 68 64 88 94 100 80 86 82 100 100 100 90 70 56 42 47
100 99 100 100 100 100 100 100 100 100 100 92 90 85 100 100 100 96 94 91 72 82 98 100 100 99 71 99 100 100 100 100 96 89 58 41 42 59
100 100 100 100 100 100 100 100 100 100 100 100 79 84 90 78 76 72 87 100 100 100 100 100 100 100 100 100 100 100 100 88 80 69 43 63 66 65
100 100 99 100 100 100 99 100 100 100 100 100 100 100 100 100 100 100 100 82 98 96 100 100 100 100 100 100 100 89 88 78 59 50 49 80 94 100
97 100 100 100 100 100 100 100 100 100 100 100 100 100 100 100 100 100 100 94 100 100 100 100 100 99 97 100 85 81 58 50 50 54 79 83 100 84
100 100 100 100 100 100 100 100 100 100 100 99 100 100 100 100 100 100 100 99 100 93 87 60 74 83 100 90 76 58 55 65 67 98 98 100 97 100
100 100 100 100 100 100 100 100 100 100 100 100 100 100 100 100 100 100 100 96 94 100 99 95 97 95 76 44 70 47 82 82 100 100 100 100 100 100
100 100 100 100 100 100 100 100 100 100 99 97 98 100 100 100 100 96 88 98 100 99 82 79 66 63 87 71 93 99 88 100 100 100 100 100 100 100
100 100 100 100 100 100 100 100 100 100 100 100 100 94 85 81 68 85 94 92 76 73 90 74 90 99 100 100 100 100 100 100 100 100 95 100 100 100
100 100 100 100 100 100 100 100 100 100 100 100 100 100 100 100 100 100 100 100 100 100 100 100 100 100 100 100 100 100 100 100 100 100 98 100 89 100
100 100 100 100 100 100 100 100 100 100 100 100 100 100 100 100 100 100 100 100 100 100 100 100 100 100 100 100 100 100 100 100 97 85 100 96 98 100
50 73 70 68 75 95 98 93 98 100 100 100 100 100 100 100 100 100 100 100 100 100 100 100 100 100 100 100 100 100 100 95 100 100 100 90 100 100
41 41 36 31 31 40 52 79 99 89 72 92 100 100 93 96 100 100 100 100 100 100 100 100 100 100 100 100 100 100 100 100 97 98 95 100 100 99
16 22 29 34 31 31 32 30 34 42 51 71 88 97 100 100 100 100 100 99 100 88 99 100 100 100 100 100 100 90 100 100 94 97 99 92 95 86
3 3 4 4 7 10 13 21 28 40 47 51 56 64 88 91 86 97 100 100 100 96 100 100 100 99 99 100 100 100 100 93 96 92 94 82 86 86
2 2 2 2 3 4 4 4 7 16 32 48 54 56 63 74 78 84 97 97 100 100 100 100 99 100 100 100 100 100 90 94 93 86 79 86 79 86
2 2 2 2 2 2 3 3 4 4 6 17 34 38 44 54 50 63 74 83 82 80 84 88 95 100 100 100 98 95 81 77 88 78 84 70 80 78
2 2 2 2 2 2 2 2 3 4 5 5 7 12 36 40 40 49 55 53 54 64 73 78 78 89 92 95 82 69 73 80 87 71 67 75 87 82
2 2 2 2 2 2 2 2 3 3 4 5 6 8 14 24 23 27 46 48 56 61 67 68 67 67 72 67 70 71 72 76 69 65 68 90 86 82
3 3 2 2 2 2 2 2 2 3 4 6 6 7 8 7 9 20 24 24 40 49 53 58 56 53 58 63 62 66 72 65 67 74 88 91 87 88
3 3 3 2 2 2 2 2 3 4 5 6 7 7 8 8 9 9 12 15 20 33 34 33 40 46 50 53 64 67 64 72 76 87 90 90 98 98
3 3 3 2 2 2 2 3 3 4 5 7 8 8 9 9 10 11 12 14 14 16 19 26 39 40 43 50 57 62 70 82 95 89 92 100 100 100

GFSNE_250_rhum_105.txt.gz
RH
58 90 64 74 65 61 75 100 100 100 100 100 100 100 100 96 100 100 98 100 100 100 99 92 82 97 100 100 80 67 92 63 86 100 63 100 100 100
92 70 71 62 52 72 77 100 100 100 100 100 100 100 100 100 100 100 95 89 100 100 90 76 94 100 100 100 64 39 54 100 100 60 100 100 100 96
83 59 55 68 82 88 100 100 100 100 100 100 100 100 100 100 100 100 100 100 100 100 90 78 100 100 77 58 53 93 100 100 61 100 100 100 100 91
44 38 71 100 100 100 100 100 100 100 100 100 100 100 100 100 100 100 100 100 94 84 83 100 97 90 76 99 100 82 82 99 100 100 100 78 95 100
72 77 100 100 100 100 100 100 100 100 100 100 88 85 98 93 93 100 100 91 92 100 100 99 74 100 100 100 72 96 100 100 100 100 70 70 57 48
100 100 100 100 100 100 100 100 100 100 100 100 100 100 100 100 100 100 100 100 100 100 100 100 94 100 77 100 98 94 100 98 88 99 62 100 43 43
100 100 100 100 100 100 100 100 100 100 100 100 100 100 100 100 99 100 100 100 100 100 100 100 97 96 100 100 100 98 91 83 73 100 84 57 38 58
100 100 100 96 100 100 100 100 100 100 100 100 100 100 100 100 100 100 100 100 100 100 90 100 100 100 100 92 84 81 72 56 40 42 39 47 81 90
97 100 100 100 100 100 100 100 100 100 100 100 100 100 100 100 100 100 100 100 100 100 100 100 100 97 81 73 68 63 46 32 39 47 48 66 100 100
87 100 100 100 100 98 100 100 100 100 100 100 100 100 100 100 100 100 100 100 100 100 100 88 90 77 68 60 51 58 54 63 72 77 86 100 100 82
80 100 100 94 100 100 100 100 100 100 100 100 100 100 100 100 100 100 97 99 98 79 81 88 81 100 96 98 98 90 94 88 99 100 100 100 100 92
87 81 72 70 76 98 92 93 100 100 100 100 100 100 100 100 100 100 100 100 100 100 100 100 100 100 100 100 100 100 100 100 100 100 100 99 95 100
66 66 66 66 58 62 60 58 67 73 90 91 99 100 100 100 100 100 100 100 100 100 100 100 100 100 100 100 100 100 100 100 99 100 100 100 100 95
46 56 53 49 44 46 43 42 38 39 43 61 78 83 88 94 86 100 100 100 100 100 100 100 100 100 100 100 100 100 100 100 100 100 100 100 100 91
26 24 26 32 37 38 32 32 33 34 38 40 40 47 73 88 87 94 91 99 100 100 100 100 100 100 100 100 100 100 100 100 100 100 99 100 82 98
12 12 9 7 5 4 4 5 6 10 15 21 34 39 42 43 54 74 90 100 100 100 98 100 100 99 88 100 87 87 81 80 85 86 100 100 100 100
4 3 3 3 3 3 3 3 3 3 3 4 5 7 15 30 46 47 57 57 72 95 99 99 100 96 100 98 100 99 100 100 100 100 100 100 100 100
3 3 4 4 3 3 3 3 3 3 3 3 4 4 5 7 12 27 44 56 56 68 96 90 100 100 98 100 100 100 100 100 100 100 100 100 100 95
3 3 3 3 2 2 3 3 3 3 3 3 3 3 4 5 6 7 15 41 42 60 60 74 98 100 100 100 100 100 100 100 100 100 100 100 97 90
2 2 2 2 2 2 2 3 3 3 3 3 3 3 3 4 5 6 7 6 20 40 50 62 64 74 98 99 85 92 96 98 97 99 94 90 89 88
2 2 2 2 2 2 2 3 3 3 3 3 3 3 3 4 4 5 6 8 10 9 22 41 58 48 72 71 71 85 86 83 82 85 89 85 91 94
2 2 2 2 2 2 3 3 3 3 3 3 3 3 3 4 4 4 5 6 8 9 12 16 29 46 57 56 58 62 70 70 75 84 92 88 87 76
2 2 2 2 2 3 3 3 3 3 3 3 3 3 3 4 4 4 6 7 8 8 10 15 16 22 23 29 42 54 60 65 71 85 76 64 63 70

GFSNE_250_rhum_108.txt.gz
RH
38 49 47 46 52 64 75 77 66 48 48 100 99 97 95 100 100 100 100 100 100 98 87 100 100 92 100 100 100 100 89 91 92 97 100 80 54 55
43 41 43 49 57 53 66 50 54 72 74 99 100 90 100 100 100 100 100 100 100 100 100 100 100 100 100 95 100 100 96 89 90 100 95 63 57 72
42 39 41 45 47 42 35 35 81 100 96 100 100 100 100 100 100 100 100 100 100 100 100 100 100 100 97 100 88 100 93 62 100 98 85 69 89 65
31 37 39 33 38 42 66 99 100 100 100 100 100 100 100 100 100 100 100 100 100 100 100 100 100 100 100 93 85 72 91 72 100 90 83 100 97 99
28 29 30 41 74 89 90 95 100 100 97 100 100 100 100 100 100 100 100 100 100 100 100 100 100 99 100 98 95 72 67 83 97 71 97 99 97 100
40 53 57 58 69 85 72 66 73 73 92 100 100 100 100 100 100 100 100 100 100 100 100 100 95 100 88 77 84 55 88 87 76 80 100 87 100 90
25 40 33 38 66 62 66 65 80 90 100 100 100 99 100 100 100 100 100 100 100 100 100 100 100 98 100 100 93 84 91 89 81 94 84 85 100 93
73 65 81 81 94 100 88 100 100 100 100 100 100 100 100 96 100 100 100 100 87 93 96 96 100 100 97 90 100 100 100 100 81 92 100 82 78 60
82 79 87 100 100 100 100 100 100 100 100 100 100 100 100 100 100 100 100 100 100 100 100 100 100 100 100 100 100 100 100 100 91 90 75 70 46 35
84 88 87 90 89 87 86 96 96 100 96 94 100 100 100 100 100 100 100 100 100 100 100 100 100 100 94 100 95 92 88 86 81 68 67 49 47 65
72 77 82 84 77 77 87 100 100 100 100 100 99 98 98 100 100 100 100 100 100 100 98 100 100 100 100 100 100 97 74 62 58 45 48 55 76 92
74 76 75 69 69 71 67 63 66 75 80 95 100 100 100 100 100 100 100 100 100 100 100 100 100 100 100 100 100 100 100 100 100 100 100 92 100 100
74 70 75 76 78 83 80 73 72 66 67 67 68 82 98 100 100 100 100 100 100 100 100 100 100 100 100 100 100 100 100 100 100 100 100 100 100 100
54 50 50 52 53 56 61 66 66 70 73 76 74 74 67 60 72 85 94 100 100 100 100 100 100 100 100 100 100 100 100 100 100 100 100 100 100 100
34 32 30 30 30 29 28 30 37 48 46 49 58 59 68 62 57 51 56 72 97 96 100 100 100 100 100 100 100 100 100 100 100 100 100 100 100 100
12 13 12 13 12 12 13 14 13 13 14 15 18 24 35 41 43 52 49 52 53 53 58 88 100 100 100 100 100 100 100 100 100 100 100 100 100 100
11 11 10 8 11 12 12 11 10 8 6 6 6 8 11 15 19 24 28 46 54 55 53 58 67 85 99 100 100 100 100 100 100 100 100 100 100 100
9 11 12 10 5 4 3 3 3 3 4 4 4 4 5 5 6 6 7 11 22 43 42 51 68 56 87 100 100 100 100 100 100 100 100 100 100 100
12 7 4 4 5 4 4 3 3 2 2 2 3 3 3 3 4 5 6 7 8 9 16 25 45 60 50 89 90 90 94 98 100 100 100 100 100 100
4 4 4 4 3 2 2 2 2 2 2 2 2 2 2 3 3 4 4 6 8 10 10 11 14 23 47 64 77 76 80 83 91 98 100 100 100 100
4 3 3 2 2 2 2 2 2 2 2 2 2 3 3 3 3 4 4 5 6 8 10 12 16 13 22 31 44 49 50 60 76 86 93 92 95 99
3 2 2 2 2 2 2 2 2 2 2 2 3 3 3 3 4 4 5 5 6 7 9 11 13 14 14 20 24 28 37 42 52 68 80 78 83 99
2 2 2 3 3 2 2 2 2 3 3 3 3 3 4 4 4 4 5 5 5 6 5 9 12 14 16 14 18 27 32 23 31 38 47 66 85 97

GFSNE_250_rhum_111.txt.gz
RH
41 44 44 55 61 52 49 51 52 47 56 59 62 64 65 70 60 69 72 65 96 100 100 100 100 100 100 80 100 100 100 99 100 100 93 73 96 100
48 48 49 51 50 54 64 58 60 53 48 63 62 59 60 64 74 80 71 78 94 100 100 100 100 100 100 100 100 100 100 100 100 100 100 100 89 99
21 27 32 36 45 53 60 59 63 69 70 64 63 62 66 68 77 77 86 100 100 92 100 100 100 96 100 100 100 100 100 100 100 100 100 100 97 95
13 13 12 13 19 26 36 45 41 58 73 63 58 58 59 66 68 95 100 100 100 100 100 100 100 100 100 100 100 100 100 100 100 100 100 98 89 78
14 14 14 14 15 14 15 20 25 28 30 31 36 46 50 61 76 100 100 100 100 100 100 100 100 100 100 100 100 96 100 100 100 100 99 87 82 60
16 17 17 19 22 24 27 29 31 34 36 44 52 62 75 100 100 100 100 100 100 100 100 100 100 100 100 100 100 100 100 100 100 97 86 74 69 85
21 21 21 21 22 27 28 33 60 68 67 75 88 86 98 100 100 100 100 100 100 100 100 100 100 100 100 100 100 99 100 97 88 85 82 94 99 100
20 23 25 30 35 37 62 69 74 66 67 88 92 98 78 86 100 99 100 100 100 100 100 100 100 100 100 100 100 100 100 99 100 100 100 100 94 100
67 64 67 62 70 67 82 89 98 100 100 92 100 100 100 94 100 100 100 100 100 100 100 100 100 100 100 100 100 100 100 100 100 100 100 100 100 100
79 93 99 96 98 100 100 100 98 97 100 100 100 100 99 100 98 98 100 100 100 100 100 100 100 100 100 100 100 100 100 100 100 100 100 100 100 100
71 67 64 68 72 71 76 75 80 86 83 80 98 100 100 100 100 100 100 100 94 100 100 100 100 100 100 100 100 100 100 100 100 100 100 100 100 90
66 63 62 60 58 57 60 60 58 61 60 58 60 73 92 99 100 91 99 97 98 92 100 100 100 100 100 100 100 100 100 88 77 84 72 66 71 54
73 68 64 60 58 58 57 57 61 68 65 59 56 57 58 58 62 75 80 83 97 99 98 98 100 100 97 100 100 100 100 100 100 99 100 98 95 99
71 70 70 71 70 70 69 65 60 59 57 58 59 61 62 59 57 56 56 60 61 67 94 100 100 100 100 99 99 100 100 100 100 100 100 100 100 100
51 52 51 50 49 47 46 47 49 46 45 43 44 48 51 56 62 74 80 83 82 72 68 70 88 97 98 100 100 100 100 100 100 100 100 100 100 100
31 32 34 34 34 29 22 18 16 13 13 12 14 15 21 29 35 39 44 51 58 63 71 84 84 81 81 91 100 100 100 100 100 100 100 100 100 100
9 9 7 6 6 6 6 6 6 7 7 7 8 8 10 13 16 16 15 16 18 24 32 45 61 68 84 87 79 84 100 100 100 100 100 100 100 100
5 5 5 5 5 6 6 6 6 6 6 8 9 10 9 10 11 12 12 12 16 19 23 28 30 46 49 64 91 97 82 87 85 98 100 100 100 100
5 5 6 6 6 6 6 6 5 4 3 3 3 4 4 5 5 5 5 5 6 6 7 8 16 31 36 40 60 76 82 89 88 92 97 100 100 100
5 6 7 7 4 3 3 3 3 4 3 3 3 3 2 2 2 3 3 3 3 4 5 6 8 10 12 32 43 69 61 75 84 92 98 83 96 98
6 4 3 3 4 4 3 3 2 2 2 2 2 2 2 2 2 2 2 2 2 3 3 3 5 7 9 13 18 31 48 58 61 63 78 77 79 80
4 4 4 3 3 2 2 2 2 2 2 3 3 2 2 2 2 2 2 3 3 3 3 3 4 4 5 8 12 17 19 22 33 47 49 51 50 59
4 3 3 2 2 2 3 3 3 3 3 3 2 2 2 2 2 2 3 3 3 3 3 3 4 4 4 6 8 12 17 21 24 30 32 33 28 32

GFSNE_250_rhum_114.txt.gz
RH
19 32 50 52 52 48 47 42 48 43 57 58 49 49 51 55 61 60 60 55 67 56 75 72 68 72 77 88 100 100 100 100 100 100 100 100 100 100
10 16 27 40 43 42 57 62 63 56 53 56 65 62 47 56 66 70 75 74 77 85 72 70 76 73 79 87 97 100 100 100 100 95 100 100 100 100
8 9 10 12 14 16 21 28 37 46 45 45 54 65 67 62 61 62 65 76 74 89 84 86 80 76 81 86 100 100 100 100 100 100 100 100 100 100
10 12 12 12 13 14 15 18 15 16 19 24 29 33 38 39 38 47 64 80 77 80 79 85 88 100 100 99 100 100 100 100 100 100 100 100 100 100
12 12 12 11 11 11 12 13 14 14 15 15 14 15 17 18 20 24 29 36 50 70 65 79 100 100 100 100 100 100 100 100 100 100 100 100 100 100
12 12 13 13 14 15 15 16 16 17 17 16 15 17 18 18 21 25 32 51 58 71 96 100 100 100 100 100 100 100 100 100 100 100 100 100 100 100
11 12 13 13 14 15 16 17 17 16 16 17 18 22 29 39 50 51 59 61 70 80 97 100 99 100 100 100 100 100 100 100 100 100 97 100 100 100
17 17 18 19 19 20 22 25 25 25 26 29 34 28 43 58 59 73 84 87 98 100 100 100 100 100 100 100 100 100 100 100 100 100 100 100 100 100
29 28 28 27 28 32 30 30 33 30 28 31 45 52 81 100 80 78 94 87 100 100 94 100 100 100 100 100 100 100 100 100 100 100 100 100 100 100
70 75 76 68 65 71 71 71 69 66 70 58 65 75 70 95 92 95 94 87 100 98 94 99 95 100 100 100 100 100 100 100 100 100 100 100 100 100
67 72 64 60 56 60 66 74 72 74 82 93 93 86 100 87 91 93 100 100 100 100 100 100 100 100 88 100 100 100 100 100 100 100 100 100 100 100
55 57 57 57 63 65 58 60 59 62 73 79 74 81 87 92 94 85 77 79 93 100 100 100 100 100 100 100 100 100 95 92 100 100 100 100 100 99
53 55 54 53 53 56 56 55 54 55 60 66 66 66 73 76 73 67 67 68 67 63 94 100 100 99 100 100 100 100 100 100 100 100 100 100 99 93
54 52 53 53 50 49 50 50 50 48 50 54 53 55 59 57 56 62 64 67 66 64 66 71 73 87 94 96 100 100 100 100 100 100 100 100 100 100
52 55 60 58 56 56 56 57 58 57 63 67 69 70 69 68 66 58 57 60 60 64 65 68 65 71 78 76 78 100 100 100 100 100 100 100 100 100
16 21 26 30 31 33 34 32 30 33 37 42 44 46 48 50 54 53 50 47 47 51 57 66 69 65 75 90 82 81 96 100 100 100 100 100 100 100
6 7 7 7 7 7 7 8 9 9 8 8 8 9 9 12 16 18 29 37 36 34 37 44 52 54 55 71 79 88 93 94 95 96 96 100 100 100
5 4 4 4 4 4 4 4 4 4 4 5 5 5 5 5 5 5 6 6 7 7 8 9 10 13 18 36 75 84 87 88 97 95 95 94 98 100
4 4 4 4 4 4 4 4 5 5 5 5 5 5 5 5 6 6 7 7 7 8 8 8 9 10 11 16 34 55 88 94 98 96 100 99 99 100
5 6 5 5 5 5 4 4 4 4 4 4 4 4 4 4 4 5 5 5 5 6 8 10 12 14 16 22 25 35 54 70 100 100 99 100 100 100
6 6 6 5 4 3 3 3 3 3 3 3 3 4 4 4 4 4 4 4 4 4 4 5 6 6 6 8 8 15 25 40 56 70 90 100 100 98
3 3 4 4 4 4 3 3 3 3 3 2 2 2 2 2 2 2 2 2 2 3 3 3 3 3 3 4 6 8 11 15 23 43 62 81 94 99
4 4 4 3 3 3 2 2 2 2 3 3 3 3 3 3 3 3 3 3 3 3 3 3 3 3 4 4 4 4 5 7 11 17 33 58 73 96

GFSNE_250_rhum_117.txt.gz
RH
7 7 7 8 9 11 18 39 57 67 77 70 57 54 43 46 53 58 43 42 54 66 69 61 63 64 72 81 84 79 98 91 92 94 96 94 100 100
7 8 8 8 8 8 9 13 20 37 56 73 71 72 62 59 57 50 59 60 64 63 64 66 66 56 62 76 94 85 91 97 98 99 99 100 100 100
34 36 24 14 11 9 9 9 10 14 18 32 35 41 49 50 48 47 35 39 54 48 54 58 64 72 79 80 88 96 99 99 100 100 97 100 100 100
15 11 9 11 10 9 9 8 9 9 10 14 20 33 37 35 34 25 21 20 24 25 29 42 52 53 58 53 66 87 99 98 90 100 87 100 100 100
10 10 12 10 9 9 8 9 9 9 9 11 14 17 19 17 15 14 16 19 17 18 19 20 23 24 24 27 87 77 73 93 100 100 91 100 100 100
8 7 8 9 9 9 10 10 11 11 12 11 13 14 14 15 16 16 17 16 18 20 20 19 21 20 26 40 78 97 100 100 100 100 100 100 100 100
15 12 8 8 9 10 12 13 13 13 14 14 14 14 14 15 16 16 18 19 20 21 20 20 34 32 63 74 99 100 100 100 100 100 100 100 100 100
16 14 16 17 14 11 10 10 12 13 14 15 16 17 16 18 19 19 19 20 22 26 20 42 59 77 100 100 100 100 100 100 100 100 100 100 100 100
41 43 35 22 18 18 20 18 18 17 15 14 15 17 18 19 21 21 26 32 47 67 56 70 81 86 98 100 100 98 100 100 100 100 100 100 100 100
43 45 44 37 40 42 31 21 19 19 21 25 25 25 25 28 30 36 33 39 38 68 54 65 65 81 87 95 100 100 100 100 100 100 100 100 100 100
36 35 34 38 39 41 50 52 51 47 46 45 43 39 42 38 37 39 44 41 47 79 88 100 100 85 81 94 100 100 90 96 100 100 100 100 100 100
40 44 47 49 45 40 39 46 50 53 60 69 70 71 74 75 71 65 73 71 81 100 97 100 100 83 99 100 100 100 79 92 98 100 100 100 98 99
22 26 33 39 44 45 44 46 48 52 58 61 57 56 60 66 70 70 69 78 86 92 96 81 98 100 100 100 100 100 100 100 100 100 93 92 95 97
12 13 15 17 24 32 40 47 48 48 49 49 49 50 50 52 54 63 74 76 84 90 87 76 85 85 88 98 100 100 100 100 100 100 100 100 100 100
10 11 11 11 12 12 13 17 24 31 35 40 46 50 48 46 46 45 47 54 63 72 82 92 86 92 90 100 100 100 100 100 100 100 100 100 100 100
7 8 8 8 8 7 7 7 7 7 8 11 26 38 40 39 44 48 49 46 49 58 70 71 74 75 80 90 93 98 100 100 100 100 100 100 100 100
5 4 4 4 4 4 5 5 5 4 4 5 6 7 9 13 22 25 32 39 40 43 51 57 64 68 74 77 77 82 83 83 91 89 88 93 99 100
6 5 5 5 4 4 4 4 4 5 5 5 4 5 5 5 6 6 6 7 10 14 20 29 32 46 57 73 77 76 86 95 95 92 97 96 95 100
5 4 4 4 4 4 4 4 4 4 4 4 5 5 5 5 5 4 4 4 5 6 6 6 7 7 9 18 44 54 62 78 89 85 94 100 100 100
7 8 7 7 6 6 5 5 5 5 4 5 4 4 5 5 5 5 5 5 6 6 6 6 6 5 5 6 6 8 11 28 48 64 83 94 100 100
6 4 4 3 3 3 3 3 3 3 3 3 3 3 3 3 3 3 4 4 4 5 5 6 6 7 7 7 7 7 8 8 11 17 32 50 57 86
4 4 4 4 4 4 4 4 4 3 3 3 3 3 3 3 3 3 3 3 3 4 4 4 4 4 5 6 8 12 13 13 12 10 10 13 21 29
5 5 4 4 4 3 3 3 3 3 3 3 3 3 3 3 3 3 3 3 3 3 3 3 3 3 3 4 5 6 8 9 13 17 18 19 23 39

GFSNE_250_rhum_120.txt.gz
RH
51 26 12 7 8 17 9 8 10 17 15 14 36 78 99 84 89 76 57 52 48 62 66 73 72 75 71 60 72 72 78 94 89 89 90 77 64 92
16 16 16 17 11 14 8 7 8 9 12 14 14 21 39 56 74 89 71 68 48 47 52 68 60 64 68 74 71 66 63 74 74 72 74 95 89 89
27 30 24 24 17 13 11 16 15 18 9 16 24 21 18 18 23 23 30 46 35 46 56 56 49 55 56 63 59 58 55 65 69 63 65 86 99 100
17 17 24 34 42 34 39 33 26 26 35 45 38 32 27 18 18 20 25 32 33 35 40 42 42 41 40 45 49 34 26 28 32 42 58 72 71 78
45 48 46 53 44 41 42 45 25 16 17 19 34 35 26 20 16 16 20 24 18 19 30 35 25 21 32 28 18 17 19 21 26 37 48 50 59 85
85 75 76 55 62 49 30 24 20 14 12 15 19 20 20 18 16 13 14 16 21 19 17 14 17 20 17 16 16 18 20 22 26 28 31 39 47 86
20 23 21 19 19 17 15 13 11 10 9 8 10 13 16 15 13 14 14 16 18 17 16 17 18 18 20 19 19 22 23 22 29 43 37 96 75 100
28 24 24 22 15 13 12 11 12 10 9 11 9 9 10 11 12 13 14 16 16 17 19 21 20 22 22 23 26 29 25 28 44 68 80 100 89 100
19 28 30 24 22 23 27 26 18 12 12 13 13 12 14 14 14 15 16 17 18 19 18 20 19 22 24 33 28 46 47 78 94 100 100 100 100 98
15 11 11 19 31 32 29 25 23 26 24 20 18 17 17 17 19 20 20 22 25 25 21 26 25 27 27 34 53 55 66 82 98 100 100 100 100 100
8 9 14 16 13 15 30 36 33 28 28 28 28 28 22 22 23 26 28 33 33 38 28 39 42 48 56 66 61 67 90 99 100 100 100 100 100 100
9 8 8 9 14 14 12 16 31 34 35 35 36 36 38 37 33 33 29 30 37 41 42 31 48 44 52 65 76 82 84 92 97 92 100 100 95 96
7 7 7 8 8 10 14 14 16 19 20 30 37 40 41 42 47 49 53 59 65 72 77 60 68 68 75 77 67 74 82 95 99 100 100 99 100 94
5 5 6 7 8 8 9 10 14 15 16 20 25 32 40 44 45 46 52 57 62 75 76 80 87 83 81 93 99 95 80 97 100 98 100 98 96 95
6 6 6 6 6 6 7 8 8 9 11 14 15 18 23 31 38 45 52 53 61 70 74 70 72 84 78 93 100 100 89 100 100 100 100 94 100 100
6 6 7 6 6 5 5 4 5 5 6 6 7 8 10 12 14 17 27 36 52 63 67 77 76 68 80 84 99 100 100 99 85 96 100 100 100 100
6 6 6 6 6 6 5 4 4 3 4 4 5 5 6 7 8 8 10 11 14 29 48 56 65 77 78 85 93 97 100 100 100 98 100 100 99 100
6 6 4 4 4 4 4 4 4 4 4 4 4 4 4 4 5 5 6 6 7 8 10 12 28 56 68 77 86 90 92 99 100 100 100 100 100 100
10 10 11 11 10 8 7 6 6 5 4 4 3 4 4 4 4 4 4 4 5 5 6 7 6 7 18 61 73 81 85 83 84 89 89 92 94 100
14 13 8 4 4 3 3 3 3 3 3 3 3 4 5 5 4 4 4 4 4 5 5 5 5 5 5 8 32 59 68 92 99 100 100 99 94 92
10 6 5 5 5 5 4 4 4 4 4 4 3 4 4 3 3 3 4 4 5 5 5 5 5 5 5 5 6 12 30 47 76 92 100 100 100 100
6 6 6 5 5 5 4 4 4 3 3 3 3 3 3 3 3 3 3 4 4 4 4 4 4 5 6 6 6 6 6 6 16 38 58 78 89 100
8 8 6 5 5 5 4 4 3 3 3 3 3 3 3 3 2 2 2 2 2 3 3 3 4 4 4 4 5 6 7 7 6 6 10 20 27 56

GFSNE_250_rhum_123.txt.gz
RH
6 7 10 12 14 55 46 15 11 10 11 12 14 16 15 17 18 24 35 85 100 100 100 100 97 74 59 63 68 100 88 100 100 100 96 100 97 96
5 7 37 45 39 41 38 23 12 9 9 12 20 38 23 16 15 16 17 18 39 83 87 68 95 96 93 82 86 88 88 100 99 100 100 100 98 95
18 48 37 42 35 38 40 28 20 15 10 14 14 18 26 22 21 32 28 20 16 16 24 37 42 56 64 70 67 70 75 92 100 100 99 100 95 80
18 16 18 41 46 29 21 15 16 15 12 11 21 31 40 36 42 54 41 37 38 27 35 38 51 41 49 96 67 60 38 42 63 76 85 81 72 55
45 46 52 45 25 22 15 18 33 40 44 50 70 55 49 49 59 52 42 53 76 79 81 74 60 44 31 34 57 36 20 30 42 45 56 51 42 44
31 30 35 50 54 58 54 60 69 73 72 54 53 45 54 60 62 61 44 38 48 38 38 31 29 27 34 27 41 62 33 22 28 27 38 31 38 31
23 25 36 33 31 38 42 46 46 47 45 42 41 32 22 20 22 27 30 22 18 18 24 30 30 31 27 27 23 31 44 32 33 25 26 26 25 24
18 18 23 22 24 26 26 21 20 18 16 16 15 15 13 11 10 9 10 10 11 11 19 24 27 30 26 24 25 26 41 52 47 31 22 22 26 26
11 13 15 16 18 20 20 20 24 25 23 22 22 20 18 16 14 12 11 10 10 11 12 21 20 27 28 26 24 25 25 23 24 26 28 29 30 28
10 9 9 10 12 12 12 15 17 16 17 23 26 24 26 23 20 21 14 12 12 13 11 19 17 24 34 37 34 33 26 26 26 29 31 34 39 49
8 7 7 7 8 8 10 11 11 10 12 16 17 22 30 30 29 28 27 23 15 14 13 16 22 23 29 38 39 36 36 32 34 43 43 54 92 76
7 6 6 6 6 6 6 7 8 9 10 10 11 19 17 18 27 34 38 36 36 39 20 16 22 22 25 31 32 40 42 37 33 40 73 84 80 99
6 5 5 5 5 5 5 6 6 7 8 9 10 10 11 19 20 22 32 38 38 43 50 28 29 27 28 36 38 39 45 46 56 72 69 81 80 92
6 6 5 5 5 5 6 6 5 5 6 6 7 7 8 8 14 20 20 27 38 43 46 40 45 40 35 48 57 53 63 71 64 72 85 91 87 92
7 6 5 4 4 4 4 5 6 6 5 5 5 5 6 6 6 8 11 14 20 32 43 44 45 54 61 63 64 70 52 78 84 82 77 88 100 94
7 6 5 5 4 5 4 4 4 5 6 5 5 4 4 4 4 6 7 8 9 15 20 34 40 45 54 58 81 89 80 65 83 87 86 80 84 98
7 6 5 4 4 5 6 6 5 5 4 4 4 5 5 5 4 4 4 5 7 10 9 11 17 30 44 60 68 87 95 91 67 80 86 90 94 100
7 5 5 6 7 8 9 8 8 8 8 8 7 5 3 3 4 4 4 4 4 5 8 8 10 14 23 40 63 71 90 99 94 78 71 94 85 98
7 6 8 10 9 8 6 5 4 4 3 3 3 3 4 5 5 3 2 4 4 4 4 4 6 9 13 21 27 41 61 80 98 99 92 76 96 100
7 8 11 10 6 5 5 5 5 5 4 4 4 4 4 3 3 3 4 4 4 4 4 4 4 4 6 10 18 33 42 50 59 78 98 100 96 94
7 11 10 6 6 6 6 5 5 5 4 4 4 4 4 4 4 4 4 3 3 4 4 4 4 5 5 5 7 12 19 40 43 48 66 88 100 99
10 11 7 7 7 6 5 5 5 5 4 4 3 3 3 3 3 3 3 3 4 4 3 3 4 5 5 5 5 6 6 9 19 42 48 52 74 89
12 9 8 8 6 6 6 5 4 4 4 4 4 4 4 4 4 4 3 3 3 3 3 4 4 4 4 6 6 6 6 5 6 8 24 41 49 65

GFSNE_250_rhum_126.txt.gz
RH
4 3 4 4 4 4 7 9 18 21 20 20 14 17 22 23 24 25 30 33 33 35 93 98 98 99 100 100 100 100 100 100 93 92 100 100 100 100
5 5 5 5 5 5 6 8 11 14 13 11 26 22 21 20 21 28 24 22 19 20 22 26 30 31 53 80 100 100 100 100 100 100 94 98 95 93
13 9 7 6 5 6 6 10 14 25 41 45 22 14 14 10 10 12 15 20 24 26 22 20 20 21 21 24 34 48 65 80 100 100 100 89 96 92
20 20 18 22 22 11 9 7 7 13 19 18 16 12 12 10 14 22 25 25 26 30 32 23 21 32 37 24 29 22 21 27 70 96 100 68 60 52
15 16 21 22 24 26 29 19 14 16 18 23 22 21 17 19 22 15 17 20 25 43 57 67 64 53 50 36 46 72 61 48 42 35 41 60 64 42
16 15 15 17 19 20 24 30 36 38 37 38 32 27 21 19 30 37 49 48 47 51 65 71 75 77 87 92 95 88 79 71 75 73 70 63 98 67
22 16 14 14 14 16 16 18 22 27 33 41 44 50 44 36 39 41 49 48 54 52 57 66 63 67 63 73 90 84 83 77 84 87 96 92 89 82
23 20 16 13 12 12 12 12 14 17 18 21 30 37 36 35 32 37 45 41 54 29 45 46 40 52 42 32 33 38 51 58 66 58 56 72 73 68
20 16 14 13 11 11 10 10 10 10 10 14 18 20 24 26 35 32 29 30 36 29 20 20 11 14 15 16 13 17 24 23 25 54 72 67 67 80
16 13 12 11 10 10 10 10 9 9 8 9 10 13 14 17 19 20 22 29 38 37 23 26 23 18 13 10 12 11 10 11 18 39 56 56 67 74
17 14 11 10 10 10 9 8 8 7 7 7 8 10 12 12 13 17 21 21 24 36 30 33 38 29 27 16 12 11 11 11 15 30 40 45 50 52
17 13 11 10 9 8 7 7 6 5 5 5 6 7 8 9 10 11 12 14 22 30 24 32 38 30 30 25 17 14 13 15 18 24 28 35 40 50
17 13 11 10 8 7 6 6 6 5 5 5 5 5 5 6 7 8 9 9 11 16 29 20 33 36 36 41 33 21 18 16 30 31 40 39 42 51
19 13 11 9 8 6 6 5 5 5 5 4 4 4 5 5 5 5 5 7 8 10 11 14 22 27 32 40 47 26 29 24 34 42 55 50 47 46
19 13 11 9 6 5 5 5 4 4 4 4 4 4 4 4 4 5 5 4 5 6 8 8 9 20 26 37 52 48 26 33 30 41 40 62 50 51
21 14 12 9 7 6 5 4 4 4 4 4 4 4 4 4 3 3 4 4 5 5 5 6 8 8 16 23 39 58 40 33 38 38 39 52 54 62
20 14 11 8 6 5 5 6 8 8 8 8 7 6 5 5 4 3 3 3 3 4 5 5 5 7 9 15 20 39 50 44 36 49 49 56 64 68
20 14 12 8 5 5 8 8 7 6 5 4 4 4 4 4 4 5 5 5 3 3 3 4 4 5 7 9 14 19 36 51 42 41 62 66 80 79
18 14 11 7 6 9 9 6 5 5 5 5 5 5 5 4 4 3 3 3 3 4 4 2 3 4 5 7 8 11 18 32 42 45 50 76 66 82
17 14 10 6 9 9 8 7 7 6 5 5 4 4 4 4 4 4 4 3 3 3 3 4 3 3 5 5 6 7 10 15 29 41 43 54 85 76
15 13 9 8 10 8 8 7 6 5 5 5 5 4 4 4 4 4 4 3 3 3 3 3 3 4 3 4 5 5 6 9 14 27 38 47 55 88
14 12 7 10 10 10 8 6 6 6 6 5 4 4 4 4 4 4 3 3 3 3 3 3 3 3 4 5 4 5 5 6 8 12 26 38 57 55
14 11 8 12 12 11 8 7 8 6 5 5 6 6 5 5 5 4 4 4 3 3 3 2 3 3 4 4 5 5 5 5 6 8 11 23 43 54